KJ6MC Weather Reports


Display with metric or nautical units.
time (UTC)temp
F
wind
direction
speed
MPH
gust
MPH
rain 1hr
in
rain 24hr
in
rain mn
in
humidity
%
barometer
mb
20260508200213 77 333 2.0 7.0 0.00 0.00 0.00 57 1016.1
20260508200113 78 319 2.0 7.0 0.00 0.00 0.00 56 1016.1
20260508200012 78 311 2.0 6.0 0.00 0.00 0.00 57 1016.1
20260508195914 78 148 2.0 7.0 0.00 0.00 0.00 58 1016.2
20260508195903 77 148 2.0 7.0 0.00 0.00 0.00 58 1016.2
20260508195809 77 139 3.0 7.0 0.00 0.00 0.00 59 1016.2
20260508195707 77 139 3.0 7.0 0.00 0.00 0.00 58 1016.2
20260508195606 77 138 3.0 7.0 0.00 0.00 0.00 57 1016.3
20260508195507 77 235 3.0 7.0 0.00 0.00 0.00 56 1016.3
20260508195406 77 211 3.0 7.0 0.00 0.00 0.00 57 1016.2
20260508195259 77 139 3.0 7.0 0.00 0.00 0.00 57 1016.3
20260508195158 77 204 3.0 7.0 0.00 0.00 0.00 56 1016.3
20260508195059 77 269 3.0 7.0 0.00 0.00 0.00 58 1016.2
20260508194959 77 238 3.0 9.0 0.00 0.00 0.00 57 1016.2
20260508194858 77 257 3.0 9.0 0.00 0.00 0.00 57 1016.2
20260508194753 76 248 3.0 9.0 0.00 0.00 0.00 58 1016.3
20260508194652 76 131 3.0 9.0 0.00 0.00 0.00 57 1016.2
20260508194553 76 219 3.0 9.0 0.00 0.00 0.00 58 1016.3
20260508194453 76 222 3.0 9.0 0.00 0.00 0.00 58 1016.2
20260508194401 76 219 3.0 9.0 0.00 0.00 0.00 57 1016.3
20260508194353 76 195 3.0 9.0 0.00 0.00 0.00 57 1016.3
20260508194253 76 236 2.0 9.0 0.00 0.00 0.00 57 1016.3
20260508194147 77 255 2.0 9.0 0.00 0.00 0.00 57 1016.3
20260508194120 77 241 1.0 6.0 0.00 0.00 0.00 58 1016.3
20260508194047 77 235 2.0 9.0 0.00 0.00 0.00 57 1016.3
20260508194010 77 238 1.0 6.0 0.00 0.00 0.00 58 1016.3
20260508193846 77 167 1.0 6.0 0.00 0.00 0.00 57 1016.4
20260508193743 77 233 1.0 6.0 0.00 0.00 0.00 57 1016.4
20260508193640 77 229 1.0 6.0 0.00 0.00 0.00 57 1016.4
20260508193541 77 228 1.0 6.0 0.00 0.00 0.00 57 1016.4
20260508193441 77 239 1.0 4.0 0.00 0.00 0.00 58 1016.4
20260508193358 76 340 1.0 7.0 0.00 0.00 0.00 58 1016.4
20260508193341 76 340 1.0 7.0 0.00 0.00 0.00 59 1016.4
20260508193241 76 343 2.0 7.0 0.00 0.00 0.00 60 1016.5
20260508193138 76 343 2.0 7.0 0.00 0.00 0.00 60 1016.4
20260508193040 76 343 2.0 7.0 0.00 0.00 0.00 60 1016.4
20260508192937 75 337 2.0 7.0 0.00 0.00 0.00 60 1016.5
20260508192856 75 337 2.0 7.0 0.00 0.00 0.00 61 1016.5
20260508192834 75 338 3.0 7.0 0.00 0.00 0.00 61 1016.4
20260508192729 75 146 3.0 7.0 0.00 0.00 0.00 61 1016.5
20260508192629 75 236 3.0 7.0 0.00 0.00 0.00 61 1016.5
20260508192529 75 236 3.0 7.0 0.00 0.00 0.00 60 1016.5
20260508192429 75 248 3.0 7.0 0.00 0.00 0.00 59 1016.5
20260508192356 75 219 3.0 7.0 0.00 0.00 0.00 59 1016.5
20260508192328 75 229 2.0 7.0 0.00 0.00 0.00 60 1016.5
20260508192223 75 229 2.0 5.0 0.00 0.00 0.00 59 1016.4
20260508192123 75 273 2.0 5.0 0.00 0.00 0.00 60 1016.4
20260508192022 75 139 2.0 5.0 0.00 0.00 0.00 59 1016.5
20260508191923 75 205 2.0 5.0 0.00 0.00 0.00 59 1016.5
20260508191857 75 229 2.0 6.0 0.00 0.00 0.00 58 1016.5
20260508191822 75 223 2.0 9.0 0.00 0.00 0.00 59 1016.5
20260508191719 75 218 2.0 9.0 0.00 0.00 0.00 61 1016.5
20260508191617 75 238 2.0 9.0 0.00 0.00 0.00 60 1016.5
20260508191516 75 217 2.0 9.0 0.00 0.00 0.00 61 1016.5
20260508191417 74 344 2.0 9.0 0.00 0.00 0.00 61 1016.5
20260508191356 74 204 2.0 9.0 0.00 0.00 0.00 61 1016.5
20260508191316 74 203 2.0 9.0 0.00 0.00 0.00 61 1016.5
20260508191216 74 266 2.0 9.0 0.00 0.00 0.00 61 1016.5
20260508191115 74 266 2.0 9.0 0.00 0.00 0.00 61 1016.5
20260508191014 74 268 2.0 9.0 0.00 0.00 0.00 61 1016.5
20260508190913 74 217 2.0 9.0 0.00 0.00 0.00 60 1016.6
20260508190856 74 243 2.0 9.0 0.00 0.00 0.00 61 1016.6
20260508190810 74 245 1.0 9.0 0.00 0.00 0.00 61 1016.6
20260508190705 74 283 1.0 9.0 0.00 0.00 0.00 59 1016.7
20260508190605 75 224 1.0 9.0 0.00 0.00 0.00 61 1016.7
20260508190505 75 266 1.0 9.0 0.00 0.00 0.00 60 1016.7
20260508190404 75 222 1.0 5.0 0.00 0.00 0.00 62 1016.7
20260508190353 74 239 1.0 5.0 0.00 0.00 0.00 62 1016.7
20260508190305 74 235 1.0 5.0 0.00 0.00 0.00 62 1016.7
20260508190205 74 235 2.0 5.0 0.00 0.00 0.00 62 1016.7
20260508190103 74 235 2.0 6.0 0.00 0.00 0.00 62 1016.7
20260508190003 74 235 2.0 6.0 0.00 0.00 0.00 63 1016.7
20260508185902 73 226 2.0 6.0 0.00 0.00 0.00 63 1016.7
20260508185852 73 225 2.0 6.0 0.00 0.00 0.00 63 1016.7
20260508185758 73 239 2.0 6.0 0.00 0.00 0.00 63 1016.7
20260508185654 73 268 2.0 6.0 0.00 0.00 0.00 62 1016.8
20260508185555 73 195 2.0 6.0 0.00 0.00 0.00 61 1016.8
20260508185455 73 160 2.0 6.0 0.00 0.00 0.00 61 1016.8
20260508185357 73 121 2.0 6.0 0.00 0.00 0.00 62 1016.8
20260508185252 74 222 2.0 6.0 0.00 0.00 0.00 60 1016.8
20260508185149 74 231 1.0 6.0 0.00 0.00 0.00 60 1016.8
20260508185047 74 212 1.0 6.0 0.00 0.00 0.00 60 1016.8
20260508184946 74 333 1.0 6.0 0.00 0.00 0.00 62 1016.7
20260508184853 74 358 1.0 6.0 0.00 0.00 0.00 62 1016.8
20260508184847 74 1 1.0 6.0 0.00 0.00 0.00 62 1016.8
20260508184746 74 298 1.0 6.0 0.00 0.00 0.00 62 1016.8
20260508184640 74 298 1.0 6.0 0.00 0.00 0.00 62 1016.8
20260508184541 73 293 1.0 6.0 0.00 0.00 0.00 61 1016.8
20260508184441 73 222 1.0 6.0 0.00 0.00 0.00 62 1016.9
20260508184353 73 211 1.0 6.0 0.00 0.00 0.00 63 1016.9
20260508184341 73 146 1.0 6.0 0.00 0.00 0.00 63 1016.9
20260508184240 73 317 1.0 6.0 0.00 0.00 0.00 63 1016.9
20260508184137 72 318 1.0 6.0 0.00 0.00 0.00 64 1017.0
20260508184036 72 317 1.0 6.0 0.00 0.00 0.00 64 1016.9
20260508183937 72 231 2.0 6.0 0.00 0.00 0.00 64 1017.0
20260508183852 71 82 2.0 6.0 0.00 0.00 0.00 64 1017.0
20260508183837 71 64 2.0 6.0 0.00 0.00 0.00 64 1017.0
20260508183737 71 164 2.0 7.0 0.00 0.00 0.00 65 1017.0
20260508183637 71 163 3.0 7.0 0.00 0.00 0.00 65 1017.0
20260508183535 71 232 3.0 8.0 0.00 0.00 0.00 65 1017.1
20260508183435 71 248 3.0 8.0 0.00 0.00 0.00 66 1017.1
20260508183353 70 248 3.0 8.0 0.00 0.00 0.00 66 1017.1
20260508183335 70 248 3.0 8.0 0.00 0.00 0.00 66 1017.0
20260508183236 70 236 3.0 8.0 0.00 0.00 0.00 66 1017.1
20260508183134 70 233 3.0 8.0 0.00 0.00 0.00 66 1017.1
20260508183035 70 217 3.0 8.0 0.00 0.00 0.00 65 1017.1
20260508182937 70 221 3.0 8.0 0.00 0.00 0.00 65 1017.1
20260508182851 70 219 3.0 8.0 0.00 0.00 0.00 66 1017.1
20260508182835 70 198 3.0 8.0 0.00 0.00 0.00 66 1017.1
20260508182734 70 214 3.0 8.0 0.00 0.00 0.00 66 1017.1
20260508182634 70 204 3.0 8.0 0.00 0.00 0.00 65 1017.1
20260508182534 70 262 3.0 7.0 0.00 0.00 0.00 66 1017.1
20260508182429 70 232 3.0 7.0 0.00 0.00 0.00 64 1017.1
20260508182349 70 236 3.0 7.0 0.00 0.00 0.00 64 1017.1
20260508182328 70 219 2.0 7.0 0.00 0.00 0.00 64 1017.1
20260508182233 70 236 2.0 7.0 0.00 0.00 0.00 65 1017.1
20260508182129 70 259 2.0 5.0 0.00 0.00 0.00 66 1017.1
20260508182028 70 253 3.0 7.0 0.00 0.00 0.00 66 1017.1
20260508181923 70 250 3.0 10.0 0.00 0.00 0.00 65 1017.1
20260508181844 70 264 3.0 10.0 0.00 0.00 0.00 65 1017.1
20260508181823 70 246 3.0 10.0 0.00 0.00 0.00 66 1017.1
20260508181723 69 215 3.0 10.0 0.00 0.00 0.00 66 1017.1
20260508181623 69 235 3.0 10.0 0.00 0.00 0.00 65 1017.1
20260508181522 69 218 3.0 10.0 0.00 0.00 0.00 66 1017.1
20260508181416 69 224 3.0 10.0 0.00 0.00 0.00 66 1017.1
20260508181338 69 143 2.0 10.0 0.00 0.00 0.00 66 1017.1
20260508181317 69 198 2.0 10.0 0.00 0.00 0.00 67 1017.1
20260508181216 69 243 2.0 10.0 0.00 0.00 0.00 65 1017.1
20260508181117 69 224 2.0 10.0 0.00 0.00 0.00 65 1017.1
20260508181016 69 190 2.0 10.0 0.00 0.00 0.00 65 1017.2
20260508180915 70 250 2.0 7.0 0.00 0.00 0.00 64 1017.2
20260508180832 70 226 2.0 7.0 0.00 0.00 0.00 65 1017.2
20260508180814 70 243 2.0 5.0 0.00 0.00 0.00 66 1017.2
20260508180715 70 238 2.0 5.0 0.00 0.00 0.00 66 1017.2
20260508180613 70 295 2.0 5.0 0.00 0.00 0.00 66 1017.1
20260508180510 69 229 2.0 5.0 0.00 0.00 0.00 66 1017.1
20260508180407 69 228 2.0 5.0 0.00 0.00 0.00 67 1017.2
20260508180326 69 266 2.0 5.0 0.00 0.00 0.00 67 1017.2
20260508180305 69 225 2.0 5.0 0.00 0.00 0.00 68 1017.2
20260508180204 69 248 2.0 5.0 0.00 0.00 0.00 68 1017.2
20260508180105 69 180 2.0 5.0 0.00 0.00 0.00 67 1017.1
20260508180005 68 229 2.0 6.0 0.00 0.00 0.00 67 1017.2
20260508175903 68 181 2.0 6.0 0.00 0.00 0.00 67 1017.1
20260508175821 68 193 2.0 6.0 0.00 0.00 0.00 68 1017.1
20260508175802 68 230 2.0 6.0 0.00 0.00 0.00 67 1017.1
20260508175700 68 224 2.0 6.0 0.00 0.00 0.00 69 1017.1
20260508175601 68 273 2.0 6.0 0.00 0.00 0.00 69 1017.1
20260508175458 68 291 3.0 6.0 0.00 0.00 0.00 69 1017.1
20260508175357 68 196 3.0 6.0 0.00 0.00 0.00 68 1017.1
20260508175315 68 139 3.0 6.0 0.00 0.00 0.00 68 1017.1
20260508175257 68 139 3.0 6.0 0.00 0.00 0.00 68 1017.1
20260508175158 68 149 3.0 7.0 0.00 0.00 0.00 68 1017.1
20260508175055 68 187 3.0 7.0 0.00 0.00 0.00 69 1017.1
20260508175025 68 233 3.0 7.0 0.00 0.00 0.00 68 1017.1
20260508174953 67 141 3.0 7.0 0.00 0.00 0.00 69 1017.1
20260508174919 68 250 3.0 7.0 0.00 0.00 0.00 68 1017.1
20260508174747 68 225 3.0 7.0 0.00 0.00 0.00 69 1017.1
20260508174647 68 230 3.0 7.0 0.00 0.00 0.00 68 1017.1
20260508174547 68 280 3.0 7.0 0.00 0.00 0.00 68 1017.1
20260508174446 68 242 3.0 7.0 0.00 0.00 0.00 69 1017.1
20260508174340 68 120 3.0 7.0 0.00 0.00 0.00 69 1017.1
20260508174302 68 139 3.0 7.0 0.00 0.00 0.00 68 1017.1
20260508174241 68 131 2.0 7.0 0.00 0.00 0.00 69 1017.1
20260508174141 68 146 2.0 7.0 0.00 0.00 0.00 69 1017.1
20260508174040 68 156 2.0 7.0 0.00 0.00 0.00 69 1017.2
20260508173941 68 125 2.0 7.0 0.00 0.00 0.00 69 1017.2
20260508173839 67 148 2.0 5.0 0.00 0.00 0.00 70 1017.2
20260508173756 67 240 2.0 5.0 0.00 0.00 0.00 69 1017.2
20260508173739 67 239 2.0 5.0 0.00 0.00 0.00 69 1017.3
20260508173639 67 239 1.0 5.0 0.00 0.00 0.00 69 1017.2
20260508173537 67 238 1.0 5.0 0.00 0.00 0.00 69 1017.3
20260508173434 67 250 2.0 5.0 0.00 0.00 0.00 70 1017.3
20260508173330 67 246 2.0 5.0 0.00 0.00 0.00 70 1017.3
20260508173250 67 16 2.0 5.0 0.00 0.00 0.00 69 1017.3
20260508173229 67 256 1.0 5.0 0.00 0.00 0.00 69 1017.3
20260508173129 67 215 1.0 5.0 0.00 0.00 0.00 69 1017.3
20260508173029 67 280 1.0 5.0 0.00 0.00 0.00 69 1017.3
20260508172928 67 228 1.0 5.0 0.00 0.00 0.00 70 1017.3
20260508172827 67 95 1.0 5.0 0.00 0.00 0.00 70 1017.3
20260508172745 67 231 1.0 5.0 0.00 0.00 0.00 70 1017.3
20260508172730 67 230 1.0 5.0 0.00 0.00 0.00 70 1017.3
20260508172627 67 231 1.0 5.0 0.00 0.00 0.00 72 1017.3
20260508172525 67 238 1.0 5.0 0.00 0.00 0.00 71 1017.3
20260508172422 66 250 1.0 5.0 0.00 0.00 0.00 72 1017.3
20260508172321 66 212 1.0 3.0 0.00 0.00 0.00 72 1017.2
20260508172221 66 238 1.0 2.0 0.00 0.00 0.00 72 1017.3
20260508172120 66 238 1.0 3.0 0.00 0.00 0.00 73 1017.3
20260508172019 66 239 1.0 6.0 0.00 0.00 0.00 73 1017.3
20260508171916 65 228 2.0 9.0 0.00 0.00 0.00 73 1017.3
20260508171817 65 228 2.0 9.0 0.00 0.00 0.00 73 1017.3
20260508171715 65 207 2.0 9.0 0.00 0.00 0.00 74 1017.3
20260508171612 65 231 2.0 9.0 0.00 0.00 0.00 73 1017.3
20260508171513 65 232 2.0 9.0 0.00 0.00 0.00 74 1017.3
20260508171410 65 233 2.0 9.0 0.00 0.00 0.00 74 1017.3
20260508171308 65 233 2.0 9.0 0.00 0.00 0.00 74 1017.3
20260508171209 65 233 2.0 9.0 0.00 0.00 0.00 73 1017.3
20260508171109 65 200 2.0 9.0 0.00 0.00 0.00 72 1017.4
20260508171006 65 223 2.0 9.0 0.00 0.00 0.00 72 1017.4
20260508170907 65 221 1.0 7.0 0.00 0.00 0.00 72 1017.3
20260508170807 65 187 1.0 7.0 0.00 0.00 0.00 73 1017.4
20260508170720 65 241 2.0 7.0 0.00 0.00 0.00 74 1017.4
20260508170706 65 218 2.0 7.0 0.00 0.00 0.00 74 1017.4
20260508170607 65 169 2.0 7.0 0.00 0.00 0.00 74 1017.4
20260508170505 65 169 2.0 7.0 0.00 0.00 0.00 75 1017.4
20260508170405 65 128 2.0 7.0 0.00 0.00 0.00 75 1017.4
20260508170305 64 243 2.0 7.0 0.00 0.00 0.00 75 1017.4
20260508170213 64 229 2.0 7.0 0.00 0.00 0.00 75 1017.4
20260508170205 64 229 2.0 7.0 0.00 0.00 0.00 75 1017.4
20260508170103 64 274 2.0 7.0 0.00 0.00 0.00 75 1017.4
20260508170004 64 241 2.0 7.0 0.00 0.00 0.00 75 1017.4
20260508165903 64 207 3.0 7.0 0.00 0.00 0.00 75 1017.4
20260508165802 64 252 3.0 7.0 0.00 0.00 0.00 76 1017.4
20260508165714 64 151 3.0 7.0 0.00 0.00 0.00 77 1017.3
20260508165703 64 153 3.0 7.0 0.00 0.00 0.00 77 1017.3
20260508165602 63 238 3.0 7.0 0.00 0.00 0.00 77 1017.3
20260508165504 63 200 3.0 7.0 0.00 0.00 0.00 78 1017.3
20260508165403 63 249 3.0 7.0 0.00 0.00 0.00 77 1017.3
20260508165306 63 194 3.0 7.0 0.00 0.00 0.00 76 1017.3
20260508165216 63 228 3.0 7.0 0.00 0.00 0.00 76 1017.4
20260508165202 63 228 3.0 7.0 0.00 0.00 0.00 76 1017.4
20260508165057 63 228 3.0 7.0 0.00 0.00 0.00 76 1017.4
20260508164957 63 235 3.0 7.0 0.00 0.00 0.00 75 1017.4
20260508164857 64 248 2.0 7.0 0.00 0.00 0.00 76 1017.4
20260508164758 64 238 2.0 6.0 0.00 0.00 0.00 77 1017.3
20260508164714 63 147 2.0 6.0 0.00 0.00 0.00 77 1017.4
20260508164656 63 217 2.0 6.0 0.00 0.00 0.00 77 1017.4
20260508164553 63 224 2.0 7.0 0.00 0.00 0.00 76 1017.4
20260508164452 63 228 2.0 7.0 0.00 0.00 0.00 77 1017.4
20260508164352 63 248 2.0 7.0 0.00 0.00 0.00 77 1017.3
20260508164253 63 239 2.0 7.0 0.00 0.00 0.00 77 1017.4
20260508164213 63 222 2.0 7.0 0.00 0.00 0.00 77 1017.3
20260508164150 63 274 2.0 7.0 0.00 0.00 0.00 77 1017.3
20260508164044 63 193 2.0 7.0 0.00 0.00 0.00 77 1017.4
20260508163945 63 217 2.0 7.0 0.00 0.00 0.00 77 1017.3
20260508163744 63 232 2.0 7.0 0.00 0.00 0.00 76 1017.3
20260508163717 63 218 2.0 7.0 0.00 0.00 0.00 76 1017.3
20260508163644 63 236 1.0 7.0 0.00 0.00 0.00 77 1017.3
20260508163538 63 243 1.0 5.0 0.00 0.00 0.00 79 1017.2
20260508163439 63 124 2.0 5.0 0.00 0.00 0.00 79 1017.3
20260508163338 63 207 2.0 5.0 0.00 0.00 0.00 78 1017.2
20260508163239 63 138 2.0 5.0 0.00 0.00 0.00 79 1017.3
20260508163215 63 235 2.0 5.0 0.00 0.00 0.00 79 1017.3
20260508163140 62 219 2.0 5.0 0.00 0.00 0.00 79 1017.2
20260508163037 62 133 2.0 5.0 0.00 0.00 0.00 79 1017.3
20260508162937 62 226 2.0 5.0 0.00 0.00 0.00 79 1017.3
20260508162836 62 226 2.0 5.0 0.00 0.00 0.00 79 1017.3
20260508162713 62 233 2.0 5.0 0.00 0.00 0.00 79 1017.3
20260508162632 62 222 2.0 5.0 0.00 0.00 0.00 79 1017.3
20260508162527 62 222 2.0 5.0 0.00 0.00 0.00 79 1017.3
20260508162427 62 231 2.0 5.0 0.00 0.00 0.00 79 1017.3
20260508162327 62 222 2.0 5.0 0.00 0.00 0.00 79 1017.3
20260508162227 62 226 2.0 5.0 0.00 0.00 0.00 79 1017.4
20260508162212 62 204 2.0 5.0 0.00 0.00 0.00 79 1017.4
20260508162126 62 246 2.0 5.0 0.00 0.00 0.00 80 1017.4
20260508162020 62 207 2.0 5.0 0.00 0.00 0.00 81 1017.4
20260508161921 62 177 3.0 6.0 0.00 0.00 0.00 81 1017.4
20260508161820 61 110 3.0 6.0 0.00 0.00 0.00 81 1017.4
20260508161729 61 133 3.0 6.0 0.00 0.00 0.00 81 1017.4
20260508161712 61 132 3.0 6.0 0.00 0.00 0.00 80 1017.4
20260508161620 61 136 3.0 6.0 0.00 0.00 0.00 81 1017.3
20260508161516 61 176 3.0 6.0 0.00 0.00 0.00 81 1017.3
20260508161415 61 155 3.0 6.0 0.00 0.00 0.00 81 1017.3
20260508161314 61 128 3.0 6.0 0.00 0.00 0.00 81 1017.3
20260508161220 61 158 3.0 6.0 0.00 0.00 0.00 81 1017.3
20260508161210 61 159 3.0 6.0 0.00 0.00 0.00 81 1017.3
20260508161114 61 198 3.0 6.0 0.00 0.00 0.00 81 1017.3
20260508161011 61 135 2.0 6.0 0.00 0.00 0.00 80 1017.3
20260508160910 61 204 2.0 5.0 0.00 0.00 0.00 81 1017.3
20260508160811 61 153 2.0 5.0 0.00 0.00 0.00 81 1017.3
20260508160718 61 132 1.0 5.0 0.00 0.00 0.00 81 1017.2
20260508160710 61 230 1.0 5.0 0.00 0.00 0.00 81 1017.2
20260508160608 61 207 1.0 5.0 0.00 0.00 0.00 81 1017.3
20260508160506 61 236 1.0 5.0 0.00 0.00 0.00 81 1017.3
20260508160441 61 173 1.0 4.0 0.00 0.00 0.00 83 1017.4
20260508160406 61 161 1.0 5.0 0.00 0.00 0.00 81 1017.3
20260508160320 61 230 1.0 4.0 0.00 0.00 0.00 83 1017.4
20260508160204 61 173 1.0 4.0 0.00 0.00 0.00 83 1017.4
20260508155957 60 173 1.0 5.0 0.00 0.00 0.00 84 1017.4
20260508155857 60 172 1.0 5.0 0.00 0.00 0.00 84 1017.4
20260508155757 60 223 1.0 5.0 0.00 0.00 0.00 83 1017.5
20260508155711 60 233 1.0 5.0 0.00 0.00 0.00 85 1017.4
20260508155657 60 235 1.0 5.0 0.00 0.00 0.00 85 1017.4
20260508155556 60 232 1.0 5.0 0.00 0.00 0.00 85 1017.5
20260508155453 59 233 2.0 5.0 0.00 0.00 0.00 85 1017.5
20260508155350 59 226 2.0 5.0 0.00 0.00 0.00 86 1017.5
20260508155251 59 139 2.0 5.0 0.00 0.00 0.00 86 1017.5
20260508155210 59 210 2.0 6.0 0.00 0.00 0.00 86 1017.4
20260508155151 59 107 2.0 6.0 0.00 0.00 0.00 86 1017.4
20260508155048 59 235 2.0 6.0 0.00 0.00 0.00 86 1017.4
20260508154943 58 212 2.0 6.0 0.00 0.00 0.00 86 1017.5
20260508154843 58 216 2.0 6.0 0.00 0.00 0.00 87 1017.4
20260508154742 58 238 2.0 6.0 0.00 0.00 0.00 87 1017.4
20260508154711 58 238 2.0 6.0 0.00 0.00 0.00 87 1017.4
20260508154642 58 231 2.0 6.0 0.00 0.00 0.00 87 1017.4
20260508154542 58 235 2.0 6.0 0.00 0.00 0.00 87 1017.4
20260508154443 58 194 2.0 6.0 0.00 0.00 0.00 87 1017.4
20260508154341 58 251 2.0 6.0 0.00 0.00 0.00 87 1017.4
20260508154240 58 231 2.0 6.0 0.00 0.00 0.00 87 1017.4
20260508154208 58 238 2.0 6.0 0.00 0.00 0.00 88 1017.4
20260508154141 58 240 2.0 6.0 0.00 0.00 0.00 88 1017.4
20260508154041 58 195 2.0 6.0 0.00 0.00 0.00 88 1017.4
20260508153940 58 211 2.0 6.0 0.00 0.00 0.00 88 1017.4
20260508153842 57 233 2.0 7.0 0.00 0.00 0.00 88 1017.4
20260508153740 57 205 2.0 7.0 0.00 0.00 0.00 89 1017.4
20260508153708 57 250 2.0 7.0 0.00 0.00 0.00 89 1017.4
20260508153641 57 250 2.0 7.0 0.00 0.00 0.00 88 1017.4
20260508153541 57 218 2.0 7.0 0.00 0.00 0.00 89 1017.4
20260508153438 57 225 2.0 7.0 0.00 0.00 0.00 89 1017.4
20260508153340 57 233 2.0 7.0 0.00 0.00 0.00 90 1017.4
20260508153238 57 193 2.0 7.0 0.00 0.00 0.00 90 1017.5
20260508153208 57 219 2.0 7.0 0.00 0.00 0.00 90 1017.5
20260508153139 57 233 2.0 7.0 0.00 0.00 0.00 89 1017.4
20260508153039 57 226 2.0 7.0 0.00 0.00 0.00 89 1017.5
20260508152938 57 152 2.0 7.0 0.00 0.00 0.00 89 1017.4
20260508152837 57 271 2.0 6.0 0.00 0.00 0.00 90 1017.4
20260508152737 56 252 2.0 6.0 0.00 0.00 0.00 91 1017.4
20260508152705 56 233 2.0 6.0 0.00 0.00 0.00 91 1017.4
20260508152637 56 233 2.0 6.0 0.00 0.00 0.00 91 1017.4
20260508152537 56 221 3.0 6.0 0.00 0.00 0.00 91 1017.5
20260508152435 56 225 3.0 7.0 0.00 0.00 0.00 91 1017.5
20260508152332 56 224 3.0 7.0 0.00 0.00 0.00 91 1017.5
20260508152227 56 224 3.0 7.0 0.00 0.00 0.00 90 1017.4
20260508152202 56 217 3.0 7.0 0.00 0.00 0.00 90 1017.4
20260508152127 56 222 3.0 7.0 0.00 0.00 0.00 90 1017.5
20260508152027 56 195 3.0 7.0 0.00 0.00 0.00 91 1017.4
20260508151927 56 176 3.0 7.0 0.00 0.00 0.00 90 1017.5
20260508151826 56 183 3.0 7.0 0.00 0.00 0.00 91 1017.4
20260508151721 56 245 3.0 7.0 0.00 0.00 0.00 90 1017.5
20260508151704 56 207 3.0 7.0 0.00 0.00 0.00 90 1017.5
20260508151621 56 203 3.0 7.0 0.00 0.00 0.00 91 1017.5
20260508151521 56 238 3.0 7.0 0.00 0.00 0.00 91 1017.4
20260508151421 56 219 3.0 6.0 0.00 0.00 0.00 91 1017.4
20260508151320 56 214 3.0 8.0 0.00 0.00 0.00 91 1017.4
20260508151215 56 235 3.0 8.0 0.00 0.00 0.00 91 1017.4
20260508151202 55 243 3.0 8.0 0.00 0.00 0.00 91 1017.4
20260508151115 55 228 3.0 8.0 0.00 0.00 0.00 91 1017.4
20260508151015 55 245 3.0 8.0 0.00 0.00 0.00 91 1017.4
20260508150915 55 205 3.0 8.0 0.00 0.00 0.00 91 1017.4
20260508150814 55 201 3.0 8.0 0.00 0.00 0.00 91 1017.5
20260508150711 55 212 3.0 8.0 0.00 0.00 0.00 91 1017.5
20260508150701 55 250 3.0 8.0 0.00 0.00 0.00 91 1017.5
20260508150608 55 225 2.0 8.0 0.00 0.00 0.00 91 1017.4
20260508150509 55 203 2.0 8.0 0.00 0.00 0.00 91 1017.4
20260508150425 55 183 1.0 4.0 0.00 0.00 0.00 91 1017.4
20260508150409 55 203 2.0 6.0 0.00 0.00 0.00 91 1017.4
20260508150320 55 235 1.0 6.0 0.00 0.00 0.00 91 1017.4
20260508150310 55 183 1.0 4.0 0.00 0.00 0.00 91 1017.4
20260508150103 55 240 1.0 5.0 0.00 0.00 0.00 91 1017.4
20260508150004 55 221 1.0 5.0 0.00 0.00 0.00 92 1017.4
20260508145903 55 256 1.0 5.0 0.00 0.00 0.00 92 1017.4
20260508145802 55 191 2.0 6.0 0.00 0.00 0.00 92 1017.4
20260508145704 55 221 2.0 7.0 0.00 0.00 0.00 92 1017.4
20260508145601 55 217 2.0 7.0 0.00 0.00 0.00 92 1017.4
20260508145459 55 238 2.0 7.0 0.00 0.00 0.00 92 1017.4
20260508145428 55 233 3.0 7.0 0.00 0.00 0.00 92 1017.4
20260508145358 55 232 3.0 7.0 0.00 0.00 0.00 92 1017.4
20260508145314 55 195 3.0 7.0 0.00 0.00 0.00 92 1017.3
20260508145156 55 232 3.0 7.0 0.00 0.00 0.00 92 1017.4
20260508145055 54 242 3.0 7.0 0.00 0.00 0.00 92 1017.4
20260508144955 54 235 4.0 9.0 0.00 0.00 0.00 92 1017.4
20260508144851 54 218 4.0 9.0 0.00 0.00 0.00 92 1017.4
20260508144750 54 228 3.0 9.0 0.00 0.00 0.00 92 1017.4
20260508144701 54 240 3.0 9.0 0.00 0.00 0.00 92 1017.4
20260508144647 54 259 3.0 9.0 0.00 0.00 0.00 92 1017.4
20260508144545 54 133 3.0 9.0 0.00 0.00 0.00 92 1017.3
20260508144444 54 217 3.0 9.0 0.00 0.00 0.00 92 1017.3
20260508144345 54 240 3.0 9.0 0.00 0.00 0.00 92 1017.3
20260508144244 54 296 3.0 9.0 0.00 0.00 0.00 92 1017.3
20260508144158 54 205 3.0 9.0 0.00 0.00 0.00 92 1017.3
20260508144139 54 242 2.0 9.0 0.00 0.00 0.00 92 1017.2
20260508144038 54 211 2.0 7.0 0.00 0.00 0.00 92 1017.2
20260508143939 54 190 2.0 6.0 0.00 0.00 0.00 92 1017.2
20260508143925 54 216 3.0 6.0 0.00 0.00 0.00 92 1017.2
20260508143838 54 253 2.0 6.0 0.00 0.00 0.00 92 1017.2
20260508143813 54 225 3.0 6.0 0.00 0.00 0.00 92 1017.2
20260508143634 54 215 3.0 6.0 0.00 0.00 0.00 92 1017.1
20260508143532 54 217 3.0 6.0 0.00 0.00 0.00 92 1017.1
20260508143433 54 246 3.0 7.0 0.00 0.00 0.00 92 1017.1
20260508143333 54 242 3.0 7.0 0.00 0.00 0.00 92 1017.1
20260508143232 54 235 3.0 8.0 0.00 0.00 0.00 92 1017.0
20260508143158 54 232 3.0 8.0 0.00 0.00 0.00 92 1017.0
20260508143129 54 233 3.0 8.0 0.00 0.00 0.00 92 1017.0
20260508143028 54 225 2.0 8.0 0.00 0.00 0.00 92 1017.0
20260508142929 54 226 2.0 8.0 0.00 0.00 0.00 92 1017.1
20260508142829 54 225 2.0 8.0 0.00 0.00 0.00 91 1017.0
20260508142726 54 165 2.0 8.0 0.00 0.00 0.00 91 1017.0
20260508142657 54 232 2.0 8.0 0.00 0.00 0.00 91 1017.0
20260508142623 54 255 2.0 8.0 0.00 0.00 0.00 91 1017.0
20260508142521 54 158 2.0 8.0 0.00 0.00 0.00 91 1017.0
20260508142421 54 228 2.0 8.0 0.00 0.00 0.00 91 1017.0
20260508142320 54 238 2.0 8.0 0.00 0.00 0.00 91 1017.0
20260508142220 54 211 2.0 5.0 0.00 0.00 0.00 91 1017.0
20260508142156 54 186 2.0 5.0 0.00 0.00 0.00 91 1017.0
20260508142115 54 224 2.0 5.0 0.00 0.00 0.00 91 1017.0
20260508142014 54 236 2.0 5.0 0.00 0.00 0.00 91 1016.9
20260508141914 54 183 2.0 5.0 0.00 0.00 0.00 91 1016.9
20260508141814 54 136 2.0 5.0 0.00 0.00 0.00 91 1016.9
20260508141718 54 224 2.0 5.0 0.00 0.00 0.00 91 1016.9
20260508141658 54 224 2.0 5.0 0.00 0.00 0.00 91 1016.9
20260508141613 54 134 3.0 7.0 0.00 0.00 0.00 91 1016.9
20260508141512 54 141 3.0 7.0 0.00 0.00 0.00 91 1016.9
20260508141413 54 195 3.0 7.0 0.00 0.00 0.00 91 1016.9
20260508141313 54 211 2.0 7.0 0.00 0.00 0.00 91 1016.9
20260508141213 54 224 2.0 7.0 0.00 0.00 0.00 91 1016.8
20260508141157 54 208 2.0 7.0 0.00 0.00 0.00 91 1016.8
20260508141113 54 224 2.0 7.0 0.00 0.00 0.00 91 1016.8
20260508141012 54 155 2.0 7.0 0.00 0.00 0.00 91 1016.8
20260508140912 54 229 3.0 7.0 0.00 0.00 0.00 91 1016.7
20260508140813 54 212 3.0 7.0 0.00 0.00 0.00 91 1016.8
20260508140711 54 197 2.0 7.0 0.00 0.00 0.00 91 1016.7
20260508140656 54 164 2.0 7.0 0.00 0.00 0.00 91 1016.7
20260508140610 54 126 2.0 7.0 0.00 0.00 0.00 91 1016.7
20260508140509 54 225 2.0 7.0 0.00 0.00 0.00 91 1016.7
20260508140409 54 203 2.0 7.0 0.00 0.00 0.00 91 1016.7
20260508140308 54 233 2.0 7.0 0.00 0.00 0.00 91 1016.7
20260508140208 54 250 3.0 7.0 0.00 0.00 0.00 91 1016.7
20260508140150 54 242 3.0 7.0 0.00 0.00 0.00 91 1016.7
20260508140109 54 239 2.0 7.0 0.00 0.00 0.00 91 1016.7
20260508140008 54 210 2.0 7.0 0.00 0.00 0.00 92 1016.7
20260508135902 53 143 2.0 7.0 0.00 0.00 0.00 92 1016.7
20260508135803 53 222 2.0 7.0 0.00 0.00 0.00 92 1016.7
20260508135703 53 229 2.0 6.0 0.00 0.00 0.00 92 1016.7
20260508135642 53 190 2.0 6.0 0.00 0.00 0.00 92 1016.7
20260508135603 53 203 2.0 6.0 0.00 0.00 0.00 92 1016.7
20260508135502 53 155 2.0 6.0 0.00 0.00 0.00 92 1016.7
20260508135357 53 200 2.0 6.0 0.00 0.00 0.00 92 1016.7
20260508135256 53 211 2.0 6.0 0.00 0.00 0.00 92 1016.7
20260508135137 53 149 2.0 6.0 0.00 0.00 0.00 92 1016.7
20260508135057 53 253 2.0 6.0 0.00 0.00 0.00 92 1016.7
20260508134957 53 205 2.0 5.0 0.00 0.00 0.00 92 1016.7
20260508134851 53 219 2.0 5.0 0.00 0.00 0.00 92 1016.7
20260508134751 53 210 2.0 5.0 0.00 0.00 0.00 92 1016.7
20260508134650 53 200 1.0 5.0 0.00 0.00 0.00 92 1016.7
20260508134630 53 203 1.0 5.0 0.00 0.00 0.00 92 1016.6
20260508134551 53 250 1.0 5.0 0.00 0.00 0.00 92 1016.6
20260508134450 53 207 1.0 5.0 0.00 0.00 0.00 92 1016.6
20260508134344 53 215 1.0 3.0 0.00 0.00 0.00 92 1016.6
20260508134245 53 229 1.0 3.0 0.00 0.00 0.00 92 1016.6
20260508134145 53 200 1.0 3.0 0.00 0.00 0.00 92 1016.5
20260508134123 53 205 1.0 3.0 0.00 0.00 0.00 92 1016.5
20260508134045 53 158 1.0 3.0 0.00 0.00 0.00 92 1016.5
20260508133944 53 207 1.0 3.0 0.00 0.00 0.00 93 1016.5
20260508133843 53 129 1.0 3.0 0.00 0.00 0.00 93 1016.4
20260508133840 53 141 1.0 3.0 0.00 0.00 0.00 93 1016.5
20260508133742 53 113 1.0 3.0 0.00 0.00 0.00 93 1016.5
20260508133730 53 129 1.0 3.0 0.00 0.00 0.00 93 1016.4
20260508133539 53 120 1.0 3.0 0.00 0.00 0.00 93 1016.5
20260508133438 53 136 1.0 3.0 0.00 0.00 0.00 93 1016.5
20260508133338 53 134 1.0 3.0 0.00 0.00 0.00 93 1016.5
20260508133237 53 143 1.0 3.0 0.00 0.00 0.00 93 1016.5
20260508133135 53 149 1.0 3.0 0.00 0.00 0.00 93 1016.4
20260508133113 52 116 1.0 3.0 0.00 0.00 0.00 93 1016.4
20260508133034 52 225 1.0 3.0 0.00 0.00 0.00 93 1016.4
20260508132932 52 225 1.0 3.0 0.00 0.00 0.00 93 1016.4
20260508132827 52 129 1.0 3.0 0.00 0.00 0.00 93 1016.4
20260508132727 52 148 1.0 3.0 0.00 0.00 0.00 93 1016.5
20260508132607 52 148 1.0 3.0 0.00 0.00 0.00 93 1016.5
20260508132527 52 148 1.0 3.0 0.00 0.00 0.00 93 1016.4
20260508132426 52 148 1.0 4.0 0.00 0.00 0.00 93 1016.4
20260508132322 52 225 1.0 4.0 0.00 0.00 0.00 93 1016.4
20260508132220 52 225 1.0 4.0 0.00 0.00 0.00 93 1016.4
20260508132121 52 210 1.0 4.0 0.00 0.00 0.00 93 1016.4
20260508132101 52 145 1.0 4.0 0.00 0.00 0.00 93 1016.4
20260508132021 52 145 1.0 4.0 0.00 0.00 0.00 93 1016.4
20260508131920 52 166 1.0 4.0 0.00 0.00 0.00 93 1016.4
20260508131821 52 141 1.0 4.0 0.00 0.00 0.00 93 1016.4
20260508131718 52 169 1.0 4.0 0.00 0.00 0.00 93 1016.4
20260508131618 52 169 1.0 4.0 0.00 0.00 0.00 93 1016.4
20260508131559 52 186 1.0 4.0 0.00 0.00 0.00 93 1016.4
20260508131515 52 211 1.0 3.0 0.00 0.00 0.00 93 1016.5
20260508131414 52 240 1.0 4.0 0.00 0.00 0.00 93 1016.4
20260508131314 52 210 1.0 4.0 0.00 0.00 0.00 93 1016.4
20260508131212 52 236 1.0 4.0 0.00 0.00 0.00 93 1016.4
20260508131113 52 204 1.0 4.0 0.00 0.00 0.00 93 1016.4
20260508131047 52 205 1.0 4.0 0.00 0.00 0.00 93 1016.4
20260508131010 52 226 1.0 4.0 0.00 0.00 0.00 93 1016.4
20260508130911 52 173 1.0 4.0 0.00 0.00 0.00 93 1016.4
20260508130811 52 141 1.0 4.0 0.00 0.00 0.00 93 1016.4
20260508130710 52 231 1.0 4.0 0.00 0.00 0.00 93 1016.4
20260508130611 52 186 1.0 4.0 0.00 0.00 0.00 93 1016.4
20260508130541 52 210 1.0 4.0 0.00 0.00 0.00 93 1016.4
20260508130509 52 207 1.0 3.0 0.00 0.00 0.00 93 1016.4
20260508130407 52 143 1.0 4.0 0.00 0.00 0.00 93 1016.4
20260508130312 52 141 1.0 4.0 0.00 0.00 0.00 93 1016.5
20260508130307 52 144 1.0 4.0 0.00 0.00 0.00 93 1016.5
20260508130209 52 142 1.0 4.0 0.00 0.00 0.00 93 1016.4
20260508130201 52 141 1.0 4.0 0.00 0.00 0.00 93 1016.4
20260508130002 52 141 1.0 4.0 0.00 0.00 0.00 93 1016.5
20260508125902 52 228 2.0 4.0 0.00 0.00 0.00 93 1016.4
20260508125802 52 217 2.0 4.0 0.00 0.00 0.00 93 1016.4
20260508125658 52 158 2.0 4.0 0.00 0.00 0.00 93 1016.4
20260508125559 52 221 2.0 4.0 0.00 0.00 0.00 93 1016.4
20260508125530 52 148 2.0 4.0 0.00 0.00 0.00 93 1016.3
20260508125456 52 148 2.0 4.0 0.00 0.00 0.00 93 1016.3
20260508125357 52 242 2.0 4.0 0.00 0.00 0.00 93 1016.4
20260508125257 52 222 2.0 5.0 0.00 0.00 0.00 93 1016.4
20260508125157 52 210 2.0 5.0 0.00 0.00 0.00 93 1016.4
20260508125057 52 214 2.0 8.0 0.00 0.00 0.00 93 1016.4
20260508125024 52 198 2.0 8.0 0.00 0.00 0.00 93 1016.4
20260508124956 52 141 2.0 8.0 0.00 0.00 0.00 93 1016.4
20260508124857 52 212 2.0 8.0 0.00 0.00 0.00 93 1016.4
20260508124755 52 238 2.0 8.0 0.00 0.00 0.00 92 1016.4
20260508124655 52 210 3.0 8.0 0.00 0.00 0.00 92 1016.4
20260508124554 52 207 3.0 8.0 0.00 0.00 0.00 92 1016.4
20260508124517 52 242 3.0 8.0 0.00 0.00 0.00 92 1016.3
20260508124455 52 205 3.0 8.0 0.00 0.00 0.00 92 1016.3
20260508124354 52 238 3.0 8.0 0.00 0.00 0.00 92 1016.3
20260508124255 52 214 3.0 8.0 0.00 0.00 0.00 92 1016.3
20260508124154 52 136 3.0 8.0 0.00 0.00 0.00 92 1016.3
20260508124051 52 167 3.0 6.0 0.00 0.00 0.00 92 1016.3
20260508124010 52 141 3.0 6.0 0.00 0.00 0.00 92 1016.3
20260508123948 52 150 3.0 6.0 0.00 0.00 0.00 92 1016.3
20260508123849 52 223 3.0 6.0 0.00 0.00 0.00 92 1016.3
20260508123819 52 233 3.0 6.0 0.00 0.00 0.00 92 1016.3
20260508123731 52 217 3.0 6.0 0.00 0.00 0.00 92 1016.3
20260508123648 52 219 3.0 6.0 0.00 0.00 0.00 92 1016.3
20260508123615 52 155 3.0 6.0 0.00 0.00 0.00 92 1016.3
20260508123443 52 229 3.0 6.0 0.00 0.00 0.00 92 1016.3
20260508123342 52 172 3.0 6.0 0.00 0.00 0.00 92 1016.3
20260508123243 52 137 3.0 6.0 0.00 0.00 0.00 92 1016.3
20260508123225 53 241 2.0 5.0 0.00 0.00 0.00 92 1016.3
20260508123142 52 236 3.0 6.0 0.00 0.00 0.00 92 1016.3
20260508123108 52 205 2.0 6.0 0.00 0.00 0.00 92 1016.3
20260508122936 53 129 2.0 5.0 0.00 0.00 0.00 92 1016.3
20260508122836 53 215 2.0 5.0 0.00 0.00 0.00 92 1016.3
20260508122737 53 215 2.0 5.0 0.00 0.00 0.00 92 1016.3
20260508122636 53 219 2.0 6.0 0.00 0.00 0.00 92 1016.3
20260508122531 53 240 3.0 6.0 0.00 0.00 0.00 92 1016.3
20260508122452 53 216 3.0 6.0 0.00 0.00 0.00 92 1016.3
20260508122431 53 204 3.0 6.0 0.00 0.00 0.00 92 1016.3
20260508122331 53 156 2.0 6.0 0.00 0.00 0.00 92 1016.3
20260508122230 53 210 2.0 6.0 0.00 0.00 0.00 92 1016.3
20260508122130 53 231 3.0 6.0 0.00 0.00 0.00 92 1016.3
20260508122025 53 232 2.0 6.0 0.00 0.00 0.00 92 1016.2
20260508121946 53 233 3.0 6.0 0.00 0.00 0.00 92 1016.3
20260508121924 53 163 3.0 6.0 0.00 0.00 0.00 92 1016.3
20260508121825 53 230 3.0 6.0 0.00 0.00 0.00 92 1016.2
20260508121725 53 253 2.0 6.0 0.00 0.00 0.00 92 1016.3
20260508121624 53 187 2.0 5.0 0.00 0.00 0.00 92 1016.3
20260508121519 53 240 2.0 5.0 0.00 0.00 0.00 92 1016.3
20260508121441 53 184 2.0 5.0 0.00 0.00 0.00 92 1016.3
20260508121419 53 203 2.0 5.0 0.00 0.00 0.00 92 1016.3
20260508121319 53 193 2.0 5.0 0.00 0.00 0.00 92 1016.3
20260508121219 53 201 2.0 5.0 0.00 0.00 0.00 92 1016.3
20260508121118 53 219 1.0 5.0 0.00 0.00 0.00 92 1016.2
20260508121015 53 204 1.0 4.0 0.00 0.00 0.00 92 1016.3
20260508120938 53 222 1.0 4.0 0.00 0.00 0.00 92 1016.2
20260508120913 53 184 1.0 4.0 0.00 0.00 0.00 92 1016.2
20260508120812 53 245 1.0 3.0 0.00 0.00 0.00 92 1016.2
20260508120713 53 182 1.0 3.0 0.00 0.00 0.00 92 1016.2
20260508120612 53 219 1.0 3.0 0.00 0.00 0.00 92 1016.2
20260508120510 53 219 1.0 3.0 0.00 0.00 0.00 92 1016.2
20260508120411 53 211 1.0 3.0 0.00 0.00 0.00 92 1016.1
20260508120310 53 190 1.0 4.0 0.00 0.00 0.00 92 1016.2
20260508120209 53 210 1.0 4.0 0.00 0.00 0.00 92 1016.1
20260508120106 53 160 1.0 4.0 0.00 0.00 0.00 92 1016.1
20260508120007 53 167 1.0 4.0 0.00 0.00 0.00 92 1016.1
20260508115936 53 193 1.0 4.0 0.00 0.00 0.00 92 1016.1
20260508115905 53 145 1.0 4.0 0.00 0.00 0.00 92 1016.1
20260508115804 53 137 1.0 4.0 0.00 0.00 0.00 92 1016.1
20260508115702 53 211 1.0 4.0 0.00 0.00 0.00 92 1016.1
20260508115600 53 137 1.0 4.0 0.00 0.00 0.00 92 1016.0
20260508115458 53 173 1.0 4.0 0.00 0.00 0.00 92 1016.1
20260508115436 53 165 1.0 4.0 0.00 0.00 0.00 92 1016.0
20260508115359 53 136 1.0 3.0 0.00 0.00 0.00 92 1016.0
20260508115258 53 134 1.0 3.0 0.00 0.00 0.00 92 1016.0
20260508115156 53 155 1.0 5.0 0.00 0.00 0.00 92 1016.0
20260508115054 53 150 1.0 5.0 0.00 0.00 0.00 92 1016.1
20260508114936 53 155 1.0 5.0 0.00 0.00 0.00 92 1016.1
20260508114848 53 156 1.0 5.0 0.00 0.00 0.00 92 1016.1
20260508114749 53 150 1.0 5.0 0.00 0.00 0.00 92 1016.1
20260508114649 53 205 1.0 5.0 0.00 0.00 0.00 92 1016.1
20260508114548 53 136 1.0 5.0 0.00 0.00 0.00 92 1016.1
20260508114446 53 158 1.0 5.0 0.00 0.00 0.00 92 1016.1
20260508114436 53 161 1.0 5.0 0.00 0.00 0.00 92 1016.1
20260508114343 53 158 1.0 5.0 0.00 0.00 0.00 92 1016.1
20260508114242 53 211 1.0 5.0 0.00 0.00 0.00 92 1016.1
20260508114156 53 210 1.0 4.0 0.00 0.00 0.00 92 1016.0
20260508114143 53 157 1.0 4.0 0.00 0.00 0.00 92 1016.1
20260508114056 53 193 1.0 4.0 0.00 0.00 0.00 92 1016.1
20260508114047 53 210 1.0 4.0 0.00 0.00 0.00 92 1016.0
20260508113841 53 129 1.0 4.0 0.00 0.00 0.00 92 1016.0
20260508113739 53 141 1.0 4.0 0.00 0.00 0.00 92 1016.0
20260508113638 53 129 1.0 4.0 0.00 0.00 0.00 92 1016.0
20260508113537 53 128 1.0 4.0 0.00 0.00 0.00 92 1016.1
20260508113437 53 146 1.0 3.0 0.00 0.00 0.00 92 1016.1
20260508113431 53 145 1.0 3.0 0.00 0.00 0.00 92 1016.1
20260508113330 53 145 2.0 5.0 0.00 0.00 0.00 92 1016.1
20260508113231 53 203 2.0 5.0 0.00 0.00 0.00 92 1016.1
20260508113130 53 203 1.0 5.0 0.00 0.00 0.00 92 1016.0
20260508113029 53 162 1.0 5.0 0.00 0.00 0.00 92 1016.1
20260508112937 53 235 1.0 5.0 0.00 0.00 0.00 92 1016.0
20260508112931 53 238 1.0 5.0 0.00 0.00 0.00 92 1016.0
20260508112829 53 129 1.0 5.0 0.00 0.00 0.00 92 1016.0
20260508112728 53 154 2.0 5.0 0.00 0.00 0.00 92 1016.0
20260508112709 53 188 2.0 5.0 0.00 0.00 0.00 92 1016.0
20260508112627 53 211 2.0 5.0 0.00 0.00 0.00 92 1016.0
20260508112546 53 158 2.0 5.0 0.00 0.00 0.00 92 1016.0
20260508112419 53 241 2.0 5.0 0.00 0.00 0.00 92 1016.0
20260508112319 53 162 2.0 4.0 0.00 0.00 0.00 92 1016.0
20260508112218 53 212 2.0 5.0 0.00 0.00 0.00 92 1016.0
20260508112118 53 228 2.0 5.0 0.00 0.00 0.00 92 1016.0
20260508112019 53 223 2.0 5.0 0.00 0.00 0.00 92 1016.0
20260508111934 53 136 2.0 5.0 0.00 0.00 0.00 92 1016.0
20260508111911 53 210 2.0 5.0 0.00 0.00 0.00 92 1016.0
20260508111811 53 155 2.0 5.0 0.00 0.00 0.00 92 1016.0
20260508111710 53 153 2.0 5.0 0.00 0.00 0.00 92 1016.0
20260508111611 53 144 2.0 5.0 0.00 0.00 0.00 93 1016.0
20260508111510 53 141 1.0 5.0 0.00 0.00 0.00 93 1016.0
20260508111435 53 205 1.0 5.0 0.00 0.00 0.00 93 1016.0
20260508111407 53 210 1.0 5.0 0.00 0.00 0.00 93 1016.0
20260508111305 53 194 1.0 4.0 0.00 0.00 0.00 93 1016.0
20260508111204 53 195 1.0 5.0 0.00 0.00 0.00 93 1016.0
20260508111105 53 218 1.0 5.0 0.00 0.00 0.00 93 1016.0
20260508111002 53 224 1.0 5.0 0.00 0.00 0.00 93 1016.0
20260508110934 53 222 1.0 5.0 0.00 0.00 0.00 93 1016.0
20260508110857 53 211 1.0 5.0 0.00 0.00 0.00 93 1016.0
20260508110756 53 215 1.0 5.0 0.00 0.00 0.00 93 1016.0
20260508110657 53 217 1.0 5.0 0.00 0.00 0.00 93 1016.0
20260508110557 53 212 1.0 5.0 0.00 0.00 0.00 93 1016.0
20260508110454 53 210 2.0 5.0 0.00 0.00 0.00 93 1016.0
20260508110434 53 211 1.0 5.0 0.00 0.00 0.00 93 1016.0
20260508110355 53 229 1.0 5.0 0.00 0.00 0.00 93 1016.0
20260508110255 53 144 1.0 5.0 0.00 0.00 0.00 93 1016.0
20260508110155 53 219 1.0 4.0 0.00 0.00 0.00 93 1016.0
20260508110054 53 205 1.0 4.0 0.00 0.00 0.00 93 1015.9
20260508105952 53 219 1.0 4.0 0.00 0.00 0.00 93 1016.0
20260508105935 53 200 1.0 4.0 0.00 0.00 0.00 93 1015.9
20260508105853 53 221 1.0 4.0 0.00 0.00 0.00 93 1015.9
20260508105753 53 207 1.0 4.0 0.00 0.00 0.00 93 1015.9
20260508105653 53 173 1.0 4.0 0.00 0.00 0.00 93 1015.9
20260508105552 53 212 1.0 4.0 0.00 0.00 0.00 93 1015.9
20260508105451 53 158 1.0 4.0 0.00 0.00 0.00 93 1015.9
20260508105433 53 153 1.0 4.0 0.00 0.00 0.00 93 1015.9
20260508105350 53 170 1.0 4.0 0.00 0.00 0.00 93 1015.9
20260508105248 53 170 1.0 4.0 0.00 0.00 0.00 93 1015.9
20260508105149 53 205 1.0 4.0 0.00 0.00 0.00 93 1015.9
20260508105048 53 231 1.0 4.0 0.00 0.00 0.00 93 1015.9
20260508104947 53 188 1.0 4.0 0.00 0.00 0.00 93 1015.9
20260508104932 53 218 1.0 4.0 0.00 0.00 0.00 93 1015.9
20260508104847 53 218 1.0 4.0 0.00 0.00 0.00 93 1015.9
20260508104745 53 219 1.0 5.0 0.00 0.00 0.00 93 1015.9
20260508104544 53 219 1.0 5.0 0.00 0.00 0.00 93 1015.9
20260508104445 53 145 1.0 5.0 0.00 0.00 0.00 93 1015.9
20260508104425 53 145 1.0 5.0 0.00 0.00 0.00 93 1016.0
20260508104344 53 146 1.0 5.0 0.00 0.00 0.00 93 1015.9
20260508104244 53 127 1.0 5.0 0.00 0.00 0.00 93 1015.9
20260508104141 53 136 1.0 5.0 0.00 0.00 0.00 93 1015.9
20260508104040 53 132 1.0 5.0 0.00 0.00 0.00 93 1015.9
20260508103941 53 221 1.0 5.0 0.00 0.00 0.00 93 1015.9
20260508103921 53 142 1.0 5.0 0.00 0.00 0.00 93 1015.9
20260508103841 53 148 1.0 5.0 0.00 0.00 0.00 93 1015.9
20260508103737 53 193 1.0 4.0 0.00 0.00 0.00 93 1015.9
20260508103636 53 193 1.0 4.0 0.00 0.00 0.00 93 1015.9
20260508103535 53 231 1.0 4.0 0.00 0.00 0.00 93 1015.9
20260508103435 53 222 1.0 4.0 0.00 0.00 0.00 93 1015.9
20260508103420 53 212 1.0 4.0 0.00 0.00 0.00 93 1015.9
20260508103332 53 190 1.0 4.0 0.00 0.00 0.00 93 1015.9
20260508103234 53 167 1.0 4.0 0.00 0.00 0.00 93 1015.9
20260508103126 53 139 1.0 3.0 0.00 0.00 0.00 93 1015.9
20260508103025 53 217 1.0 3.0 0.00 0.00 0.00 93 1015.8
20260508102921 53 200 1.0 3.0 0.00 0.00 0.00 93 1015.9
20260508102824 53 161 1.0 3.0 0.00 0.00 0.00 93 1015.9
20260508102722 53 221 1.0 3.0 0.00 0.00 0.00 93 1015.9
20260508102645 53 195 1.0 3.0 0.00 0.00 0.00 93 1015.8
20260508102616 53 230 1.0 3.0 0.00 0.00 0.00 93 1015.9
20260508102534 53 195 1.0 3.0 0.00 0.00 0.00 93 1015.9
20260508102417 53 195 1.0 3.0 0.00 0.00 0.00 93 1015.8
20260508102317 53 211 1.0 3.0 0.00 0.00 0.00 93 1015.8
20260508102214 53 215 1.0 3.0 0.00 0.00 0.00 93 1015.8
20260508102109 53 177 1.0 3.0 0.00 0.00 0.00 93 1015.8
20260508102009 53 134 1.0 3.0 0.00 0.00 0.00 93 1015.8
20260508101909 53 212 1.0 3.0 0.00 0.00 0.00 93 1015.8
20260508101809 53 132 1.0 3.0 0.00 0.00 0.00 93 1015.8
20260508101709 53 215 1.0 3.0 0.00 0.00 0.00 93 1015.9
20260508101641 53 191 1.0 3.0 0.00 0.00 0.00 93 1015.9
20260508101606 53 179 1.0 3.0 0.00 0.00 0.00 93 1015.9
20260508101529 53 193 1.0 3.0 0.00 0.00 0.00 93 1015.9
20260508101404 53 192 1.0 3.0 0.00 0.00 0.00 93 1015.9
20260508101305 53 141 1.0 3.0 0.00 0.00 0.00 93 1015.8
20260508101202 53 193 1.0 3.0 0.00 0.00 0.00 93 1015.9
20260508101057 54 193 1.0 3.0 0.00 0.00 0.00 93 1015.9
20260508100957 54 193 1.0 3.0 0.00 0.00 0.00 93 1015.9
20260508100918 54 193 1.0 3.0 0.00 0.00 0.00 93 1015.9
20260508100857 54 160 1.0 3.0 0.00 0.00 0.00 93 1015.9
20260508100757 54 118 1.0 3.0 0.00 0.00 0.00 93 1015.9
20260508100700 54 136 0.0 3.0 0.00 0.00 0.00 93 1015.9
20260508100557 54 212 0.0 3.0 0.00 0.00 0.00 93 1015.9
20260508100455 54 212 0.0 3.0 0.00 0.00 0.00 93 1015.8
20260508100416 54 212 0.0 3.0 0.00 0.00 0.00 93 1015.8
20260508100353 54 212 0.0 3.0 0.00 0.00 0.00 93 1015.8
20260508100252 54 212 1.0 3.0 0.00 0.00 0.00 93 1015.8
20260508100151 54 212 1.0 3.0 0.00 0.00 0.00 93 1015.8
20260508100044 54 212 1.0 3.0 0.00 0.00 0.00 93 1015.8
20260508095945 54 197 0.0 3.0 0.00 0.00 0.00 93 1015.8
20260508095914 54 119 0.0 3.0 0.00 0.00 0.00 93 1015.8
20260508095845 54 139 0.0 3.0 0.00 0.00 0.00 93 1015.9
20260508095744 54 211 0.0 3.0 0.00 0.00 0.00 93 1015.9
20260508095644 54 229 1.0 3.0 0.00 0.00 0.00 93 1015.8
20260508095540 54 229 1.0 3.0 0.00 0.00 0.00 93 1015.8
20260508095414 54 143 1.0 3.0 0.00 0.00 0.00 93 1015.8
20260508095341 54 146 0.0 3.0 0.00 0.00 0.00 93 1015.7
20260508095241 54 195 0.0 3.0 0.00 0.00 0.00 93 1015.7
20260508095138 54 133 1.0 3.0 0.00 0.00 0.00 93 1015.7
20260508095035 54 132 1.0 3.0 0.00 0.00 0.00 93 1015.7
20260508094935 54 132 1.0 3.0 0.00 0.00 0.00 93 1015.7
20260508094914 54 136 1.0 3.0 0.00 0.00 0.00 93 1015.7
20260508094900 54 122 1.0 4.0 0.00 0.00 0.00 93 1015.7
20260508094834 54 129 1.0 3.0 0.00 0.00 0.00 93 1015.8
20260508094750 54 151 1.0 3.0 0.00 0.00 0.00 93 1015.8
20260508094632 54 121 1.0 4.0 0.00 0.00 0.00 93 1015.8
20260508094534 54 141 1.0 4.0 0.00 0.00 0.00 93 1015.8
20260508094525 54 122 1.0 4.0 0.00 0.00 0.00 93 1015.7
20260508094329 54 121 1.0 4.0 0.00 0.00 0.00 93 1015.7
20260508094229 54 159 1.0 4.0 0.00 0.00 0.00 93 1015.7
20260508094128 54 143 1.0 4.0 0.00 0.00 0.00 93 1015.7
20260508094029 54 143 1.0 4.0 0.00 0.00 0.00 93 1015.7
20260508093929 54 132 1.0 4.0 0.00 0.00 0.00 93 1015.7
20260508093912 54 133 1.0 4.0 0.00 0.00 0.00 93 1015.7
20260508093828 54 158 1.0 4.0 0.00 0.00 0.00 93 1015.8
20260508093726 54 116 1.0 4.0 0.00 0.00 0.00 93 1015.8
20260508093627 54 138 1.0 3.0 0.00 0.00 0.00 93 1015.7
20260508093524 54 117 1.0 3.0 0.00 0.00 0.00 93 1015.7
20260508093410 54 132 1.0 3.0 0.00 0.00 0.00 93 1015.8
20260508093320 54 135 0.0 3.0 0.00 0.00 0.00 93 1015.7
20260508093221 54 136 1.0 3.0 0.00 0.00 0.00 93 1015.7
20260508093121 54 134 1.0 3.0 0.00 0.00 0.00 93 1015.7
20260508093021 54 126 1.0 3.0 0.00 0.00 0.00 93 1015.7
20260508092920 54 145 1.0 3.0 0.00 0.00 0.00 93 1015.7
20260508092910 54 146 1.0 3.0 0.00 0.00 0.00 93 1015.7
20260508092818 54 146 1.0 3.0 0.00 0.00 0.00 93 1015.8
20260508092719 54 187 1.0 3.0 0.00 0.00 0.00 93 1015.7
20260508092619 54 165 1.0 3.0 0.00 0.00 0.00 93 1015.8
20260508092517 54 165 1.0 3.0 0.00 0.00 0.00 93 1015.8
20260508092410 54 155 1.0 3.0 0.00 0.00 0.00 93 1015.8
20260508092314 54 155 1.0 3.0 0.00 0.00 0.00 93 1015.7
20260508092214 54 132 1.0 3.0 0.00 0.00 0.00 93 1015.8
20260508092115 54 139 1.0 3.0 0.00 0.00 0.00 93 1015.7
20260508092015 54 205 1.0 3.0 0.00 0.00 0.00 92 1015.7
20260508091915 54 159 1.0 3.0 0.00 0.00 0.00 92 1015.7
20260508091811 54 131 1.0 3.0 0.00 0.00 0.00 92 1015.7
20260508091710 54 131 1.0 3.0 0.00 0.00 0.00 92 1015.7
20260508091611 54 131 1.0 3.0 0.00 0.00 0.00 92 1015.7
20260508091509 54 131 1.0 2.0 0.00 0.00 0.00 92 1015.7
20260508091410 54 132 0.0 2.0 0.00 0.00 0.00 92 1015.7
20260508091307 54 133 1.0 2.0 0.00 0.00 0.00 92 1015.7
20260508091205 54 146 1.0 3.0 0.00 0.00 0.00 92 1015.7
20260508091123 54 170 1.0 3.0 0.00 0.00 0.00 92 1015.6
20260508091103 54 191 1.0 3.0 0.00 0.00 0.00 92 1015.7
20260508091016 54 131 1.0 3.0 0.00 0.00 0.00 92 1015.6
20260508091006 54 170 1.0 3.0 0.00 0.00 0.00 92 1015.6
20260508090757 55 170 1.0 3.0 0.00 0.00 0.00 92 1015.6
20260508090658 55 184 1.0 3.0 0.00 0.00 0.00 92 1015.6
20260508090555 55 214 1.0 4.0 0.00 0.00 0.00 92 1015.6
20260508090454 55 214 1.0 4.0 0.00 0.00 0.00 92 1015.6
20260508090356 55 240 1.0 4.0 0.00 0.00 0.00 92 1015.6
20260508090251 55 225 1.0 4.0 0.00 0.00 0.00 92 1015.6
20260508090149 55 200 1.0 4.0 0.00 0.00 0.00 92 1015.6
20260508090050 55 188 1.0 4.0 0.00 0.00 0.00 92 1015.6
20260508085948 55 188 1.0 4.0 0.00 0.00 0.00 92 1015.6
20260508085850 55 143 1.0 4.0 0.00 0.00 0.00 92 1015.6
20260508085745 55 158 1.0 4.0 0.00 0.00 0.00 92 1015.5
20260508085643 55 158 1.0 4.0 0.00 0.00 0.00 92 1015.5
20260508085544 55 210 1.0 3.0 0.00 0.00 0.00 92 1015.5
20260508085443 55 155 0.0 2.0 0.00 0.00 0.00 92 1015.5
20260508085348 55 141 0.0 2.0 0.00 0.00 0.00 92 1015.5
20260508085342 55 141 1.0 2.0 0.00 0.00 0.00 92 1015.5
20260508085241 55 141 1.0 3.0 0.00 0.00 0.00 92 1015.6
20260508085141 55 152 1.0 3.0 0.00 0.00 0.00 92 1015.6
20260508085041 55 201 1.0 3.0 0.00 0.00 0.00 92 1015.6
20260508084940 55 201 1.0 3.0 0.00 0.00 0.00 92 1015.6
20260508084836 55 201 1.0 3.0 0.00 0.00 0.00 92 1015.6
20260508084735 55 201 1.0 3.0 0.00 0.00 0.00 92 1015.6
20260508084631 55 158 1.0 3.0 0.00 0.00 0.00 92 1015.6
20260508084532 55 204 1.0 3.0 0.00 0.00 0.00 92 1015.6
20260508084430 55 205 1.0 3.0 0.00 0.00 0.00 92 1015.6
20260508084330 55 204 1.0 3.0 0.00 0.00 0.00 92 1015.6
20260508084228 55 189 1.0 3.0 0.00 0.00 0.00 92 1015.6
20260508084128 55 194 1.0 3.0 0.00 0.00 0.00 92 1015.6
20260508084029 55 198 1.0 3.0 0.00 0.00 0.00 92 1015.6
20260508083927 55 198 2.0 4.0 0.00 0.00 0.00 92 1015.5
20260508083842 55 198 2.0 4.0 0.00 0.00 0.00 92 1015.5
20260508083824 55 187 1.0 4.0 0.00 0.00 0.00 92 1015.6
20260508083721 55 223 1.0 4.0 0.00 0.00 0.00 92 1015.6
20260508083620 55 228 1.0 4.0 0.00 0.00 0.00 92 1015.6
20260508083521 55 228 2.0 4.0 0.00 0.00 0.00 92 1015.6
20260508083420 55 210 1.0 4.0 0.00 0.00 0.00 92 1015.6
20260508083342 55 177 1.0 4.0 0.00 0.00 0.00 92 1015.6
20260508083318 55 235 1.0 4.0 0.00 0.00 0.00 92 1015.6
20260508083214 55 214 1.0 4.0 0.00 0.00 0.00 92 1015.6
20260508083112 55 224 1.0 4.0 0.00 0.00 0.00 92 1015.6
20260508083012 55 223 1.0 4.0 0.00 0.00 0.00 92 1015.6
20260508082913 55 217 1.0 4.0 0.00 0.00 0.00 92 1015.6
20260508082844 55 141 1.0 4.0 0.00 0.00 0.00 92 1015.6
20260508082812 55 267 1.0 4.0 0.00 0.00 0.00 92 1015.6
20260508082709 55 267 1.0 4.0 0.00 0.00 0.00 92 1015.7
20260508082609 55 214 1.0 4.0 0.00 0.00 0.00 92 1015.7
20260508082509 55 211 1.0 4.0 0.00 0.00 0.00 92 1015.7
20260508082410 55 161 1.0 4.0 0.00 0.00 0.00 92 1015.7
20260508082344 55 162 1.0 4.0 0.00 0.00 0.00 92 1015.7
20260508082306 55 217 1.0 4.0 0.00 0.00 0.00 92 1015.7
20260508082205 55 181 1.0 4.0 0.00 0.00 0.00 92 1015.7
20260508082105 55 181 1.0 4.0 0.00 0.00 0.00 92 1015.7
20260508082005 55 212 1.0 4.0 0.00 0.00 0.00 92 1015.7
20260508081843 55 210 1.0 4.0 0.00 0.00 0.00 92 1015.7
20260508081800 55 228 1.0 4.0 0.00 0.00 0.00 92 1015.7
20260508081657 55 210 1.0 4.0 0.00 0.00 0.00 92 1015.7
20260508081557 56 195 1.0 4.0 0.00 0.00 0.00 92 1015.7
20260508081456 56 138 1.0 4.0 0.00 0.00 0.00 92 1015.7
20260508081356 56 148 1.0 4.0 0.00 0.00 0.00 92 1015.7
20260508081254 56 148 1.0 4.0 0.00 0.00 0.00 92 1015.7
20260508081151 56 141 1.0 4.0 0.00 0.00 0.00 92 1015.7
20260508081048 56 175 1.0 4.0 0.00 0.00 0.00 92 1015.7
20260508080949 56 226 1.0 4.0 0.00 0.00 0.00 92 1015.8
20260508080856 56 236 1.0 2.0 0.00 0.00 0.00 92 1015.7
20260508080748 56 177 1.0 2.0 0.00 0.00 0.00 91 1015.7
20260508080646 56 177 1.0 3.0 0.00 0.00 0.00 91 1015.7
20260508080547 56 207 1.0 3.0 0.00 0.00 0.00 91 1015.7
20260508080444 56 217 1.0 3.0 0.00 0.00 0.00 92 1015.7
20260508080347 56 210 1.0 3.0 0.00 0.00 0.00 91 1015.7
20260508080242 56 210 1.0 3.0 0.00 0.00 0.00 91 1015.7
20260508080142 56 210 1.0 3.0 0.00 0.00 0.00 91 1015.7
20260508080113 56 218 1.0 3.0 0.00 0.00 0.00 91 1015.7
20260508080040 56 210 1.0 3.0 0.00 0.00 0.00 91 1015.7
20260508075957 56 205 1.0 3.0 0.00 0.00 0.00 91 1015.7
20260508075839 56 218 1.0 3.0 0.00 0.00 0.00 91 1015.7
20260508075736 56 211 1.0 3.0 0.00 0.00 0.00 91 1015.7
20260508075635 56 192 1.0 3.0 0.00 0.00 0.00 91 1015.7
20260508075535 56 219 1.0 3.0 0.00 0.00 0.00 91 1015.7
20260508075432 56 139 1.0 3.0 0.00 0.00 0.00 91 1015.7
20260508075344 56 135 1.0 4.0 0.00 0.00 0.00 91 1015.7
20260508075333 56 136 1.0 4.0 0.00 0.00 0.00 91 1015.7
20260508075230 56 136 1.0 4.0 0.00 0.00 0.00 91 1015.7
20260508075128 56 240 1.0 4.0 0.00 0.00 0.00 91 1015.7
20260508075026 56 207 1.0 4.0 0.00 0.00 0.00 91 1015.6
20260508074928 56 166 1.0 4.0 0.00 0.00 0.00 91 1015.6
20260508074843 56 229 1.0 4.0 0.00 0.00 0.00 91 1015.6
20260508074826 56 228 1.0 4.0 0.00 0.00 0.00 91 1015.6
20260508074724 56 232 1.0 4.0 0.00 0.00 0.00 91 1015.7
20260508074625 56 154 1.0 4.0 0.00 0.00 0.00 91 1015.7
20260508074523 56 222 1.0 4.0 0.00 0.00 0.00 91 1015.7
20260508074422 56 127 1.0 4.0 0.00 0.00 0.00 91 1015.7
20260508074343 56 193 1.0 4.0 0.00 0.00 0.00 91 1015.7
20260508074320 56 205 1.0 4.0 0.00 0.00 0.00 91 1015.7
20260508074217 56 217 1.0 4.0 0.00 0.00 0.00 91 1015.7
20260508074115 56 198 1.0 4.0 0.00 0.00 0.00 91 1015.7
20260508074015 56 204 1.0 4.0 0.00 0.00 0.00 91 1015.7
20260508073914 56 123 1.0 4.0 0.00 0.00 0.00 91 1015.7
20260508073840 56 205 1.0 4.0 0.00 0.00 0.00 91 1015.7
20260508073814 56 165 1.0 4.0 0.00 0.00 0.00 91 1015.7
20260508073712 56 200 1.0 4.0 0.00 0.00 0.00 91 1015.7
20260508073609 56 217 1.0 4.0 0.00 0.00 0.00 91 1015.7
20260508073507 56 217 1.0 4.0 0.00 0.00 0.00 91 1015.7
20260508073407 56 203 1.0 4.0 0.00 0.00 0.00 91 1015.7
20260508073338 56 203 1.0 4.0 0.00 0.00 0.00 91 1015.7
20260508073307 56 203 1.0 4.0 0.00 0.00 0.00 91 1015.7
20260508073206 56 149 1.0 4.0 0.00 0.00 0.00 91 1015.7
20260508073103 56 149 2.0 5.0 0.00 0.00 0.00 91 1015.7
20260508073004 56 138 2.0 5.0 0.00 0.00 0.00 91 1015.6
20260508072903 56 218 2.0 5.0 0.00 0.00 0.00 91 1015.6
20260508072839 56 172 2.0 5.0 0.00 0.00 0.00 91 1015.6
20260508072801 56 117 2.0 5.0 0.00 0.00 0.00 91 1015.6
20260508072658 56 229 2.0 5.0 0.00 0.00 0.00 91 1015.6
20260508072554 56 211 2.0 5.0 0.00 0.00 0.00 91 1015.6
20260508072452 56 225 2.0 5.0 0.00 0.00 0.00 91 1015.6
20260508072353 56 162 2.0 5.0 0.00 0.00 0.00 91 1015.6
20260508072333 56 132 2.0 5.0 0.00 0.00 0.00 91 1015.5
20260508072252 57 236 2.0 5.0 0.00 0.00 0.00 91 1015.5
20260508072153 57 195 2.0 5.0 0.00 0.00 0.00 91 1015.6
20260508072048 57 214 2.0 4.0 0.00 0.00 0.00 91 1015.6
20260508071949 57 214 2.0 4.0 0.00 0.00 0.00 90 1015.5
20260508071848 57 143 2.0 4.0 0.00 0.00 0.00 90 1015.6
20260508071832 57 208 2.0 4.0 0.00 0.00 0.00 90 1015.5
20260508071749 57 138 2.0 4.0 0.00 0.00 0.00 90 1015.5
20260508071646 57 226 2.0 4.0 0.00 0.00 0.00 90 1015.5
20260508071551 57 223 1.0 4.0 0.00 0.00 0.00 90 1015.5
20260508071541 57 211 2.0 4.0 0.00 0.00 0.00 90 1015.5
20260508071451 57 218 1.0 4.0 0.00 0.00 0.00 90 1015.5
20260508071442 57 239 1.0 4.0 0.00 0.00 0.00 90 1015.5
20260508071242 57 228 1.0 4.0 0.00 0.00 0.00 90 1015.5
20260508071140 57 229 1.0 4.0 0.00 0.00 0.00 90 1015.5
20260508071035 57 145 1.0 4.0 0.00 0.00 0.00 90 1015.5
20260508070934 57 172 1.0 4.0 0.00 0.00 0.00 90 1015.5
20260508070832 57 200 1.0 4.0 0.00 0.00 0.00 90 1015.4
20260508070735 57 241 1.0 4.0 0.00 0.00 0.00 90 1015.4
20260508070634 57 155 1.0 4.0 0.00 0.00 0.00 90 1015.5
20260508070531 57 125 1.0 4.0 0.00 0.00 0.00 90 1015.5
20260508070431 57 138 1.0 4.0 0.00 0.00 0.00 90 1015.5
20260508070330 57 144 1.0 3.0 0.00 0.00 0.00 90 1015.5
20260508070231 57 143 1.0 3.0 0.00 0.00 0.00 90 1015.6
20260508070128 57 198 1.0 3.0 0.00 0.00 0.00 90 1015.6
20260508070023 57 205 1.0 3.0 0.00 0.00 0.00 90 1015.5
20260508065923 57 203 1.0 3.0 0.00 0.00 0.00 90 1015.5
20260508065829 57 152 1.0 3.0 0.00 0.00 0.00 90 1015.5
20260508065822 57 145 1.0 3.0 0.00 0.00 0.00 90 1015.5
20260508065723 57 230 1.0 3.0 0.00 0.00 0.00 90 1015.6
20260508065622 57 132 1.0 3.0 0.00 0.00 0.00 90 1015.5
20260508065516 57 132 1.0 3.0 0.00 0.00 0.00 90 1015.5
20260508065417 57 139 1.0 3.0 0.00 0.00 0.00 89 1015.5
20260508065324 57 141 1.0 3.0 0.00 0.00 0.00 89 1015.5
20260508065315 57 146 1.0 3.0 0.00 0.00 0.00 89 1015.5
20260508065215 57 155 1.0 3.0 0.00 0.00 0.00 89 1015.5
20260508065115 57 187 1.0 4.0 0.00 0.00 0.00 89 1015.6
20260508065052 58 146 1.0 4.0 0.00 0.00 0.00 89 1015.5
20260508065014 58 146 1.0 4.0 0.00 0.00 0.00 89 1015.5
20260508064936 58 145 1.0 4.0 0.00 0.00 0.00 89 1015.5
20260508064814 58 145 1.0 4.0 0.00 0.00 0.00 89 1015.5
20260508064715 58 146 1.0 4.0 0.00 0.00 0.00 89 1015.5
20260508064615 58 146 1.0 4.0 0.00 0.00 0.00 89 1015.5
20260508064516 58 147 1.0 4.0 0.00 0.00 0.00 89 1015.5
20260508064415 58 143 1.0 4.0 0.00 0.00 0.00 89 1015.4
20260508064311 58 200 1.0 4.0 0.00 0.00 0.00 89 1015.4
20260508064211 58 203 1.0 4.0 0.00 0.00 0.00 89 1015.4
20260508064110 58 233 1.0 4.0 0.00 0.00 0.00 89 1015.4
20260508064011 58 203 1.0 4.0 0.00 0.00 0.00 89 1015.4
20260508063911 58 203 1.0 4.0 0.00 0.00 0.00 89 1015.4
20260508063811 58 203 1.0 4.0 0.00 0.00 0.00 89 1015.4
20260508063711 58 217 1.0 4.0 0.00 0.00 0.00 89 1015.4
20260508063611 58 211 1.0 4.0 0.00 0.00 0.00 89 1015.4
20260508063511 58 233 1.0 4.0 0.00 0.00 0.00 89 1015.4
20260508063411 58 243 1.0 4.0 0.00 0.00 0.00 89 1015.4
20260508063325 58 200 1.0 4.0 0.00 0.00 0.00 89 1015.3
20260508063311 58 232 1.0 4.0 0.00 0.00 0.00 89 1015.3
20260508063211 58 221 1.0 4.0 0.00 0.00 0.00 88 1015.3
20260508063111 58 221 1.0 4.0 0.00 0.00 0.00 88 1015.3
20260508063011 58 215 1.0 3.0 0.00 0.00 0.00 88 1015.3
20260508062911 58 127 1.0 3.0 0.00 0.00 0.00 88 1015.3
20260508062826 58 127 1.0 3.0 0.00 0.00 0.00 88 1015.3
20260508062811 58 146 1.0 3.0 0.00 0.00 0.00 88 1015.3
20260508062711 58 145 1.0 3.0 0.00 0.00 0.00 88 1015.3
20260508062611 58 146 1.0 3.0 0.00 0.00 0.00 88 1015.3
20260508062511 58 146 1.0 3.0 0.00 0.00 0.00 88 1015.3
20260508062407 58 145 1.0 3.0 0.00 0.00 0.00 88 1015.3
20260508062307 58 146 1.0 3.0 0.00 0.00 0.00 88 1015.3
20260508062206 58 142 1.0 3.0 0.00 0.00 0.00 88 1015.2
20260508062107 58 214 1.0 3.0 0.00 0.00 0.00 87 1015.2
20260508062007 58 205 1.0 2.0 0.00 0.00 0.00 87 1015.3
20260508061907 59 125 1.0 2.0 0.00 0.00 0.00 87 1015.3
20260508061822 59 126 1.0 2.0 0.00 0.00 0.00 87 1015.3
20260508061807 59 131 1.0 2.0 0.00 0.00 0.00 87 1015.3
20260508061706 59 131 1.0 2.0 0.00 0.00 0.00 87 1015.3
20260508061607 59 131 1.0 2.0 0.00 0.00 0.00 87 1015.3
20260508061507 59 131 1.0 2.0 0.00 0.00 0.00 87 1015.3
20260508061407 59 131 1.0 2.0 0.00 0.00 0.00 87 1015.3
20260508061307 59 148 1.0 2.0 0.00 0.00 0.00 87 1015.3
20260508061208 59 148 1.0 4.0 0.00 0.00 0.00 87 1015.2
20260508061108 59 269 1.0 4.0 0.00 0.00 0.00 87 1015.2
20260508061007 59 203 1.0 4.0 0.00 0.00 0.00 87 1015.2
20260508060907 59 192 1.0 4.0 0.00 0.00 0.00 86 1015.2
20260508060822 59 226 1.0 4.0 0.00 0.00 0.00 86 1015.3
20260508060807 59 214 1.0 4.0 0.00 0.00 0.00 86 1015.3
20260508060707 59 214 1.0 4.0 0.00 0.00 0.00 86 1015.2
20260508060607 59 198 1.0 4.0 0.00 0.00 0.00 86 1015.2
20260508060504 59 150 2.0 4.0 0.00 0.00 0.00 86 1015.2
20260508060403 59 151 2.0 4.0 0.00 0.00 0.00 86 1015.3
20260508060322 59 136 2.0 4.0 0.00 0.00 0.00 86 1015.3
20260508060303 59 127 2.0 4.0 0.00 0.00 0.00 86 1015.3
20260508060203 60 135 1.0 3.0 0.00 0.00 0.00 86 1015.2
20260508060103 60 212 1.0 3.0 0.00 0.00 0.00 86 1015.2
20260508060005 60 155 1.0 3.0 0.00 0.00 0.00 85 1015.2
20260508055904 60 158 1.0 3.0 0.00 0.00 0.00 85 1015.2
20260508055822 60 146 1.0 3.0 0.00 0.00 0.00 85 1015.2
20260508055803 60 171 1.0 3.0 0.00 0.00 0.00 85 1015.2
20260508055702 60 146 1.0 3.0 0.00 0.00 0.00 85 1015.1
20260508055603 60 211 1.0 3.0 0.00 0.00 0.00 85 1015.1
20260508055503 60 239 1.0 3.0 0.00 0.00 0.00 85 1015.1
20260508055402 60 221 1.0 3.0 0.00 0.00 0.00 85 1015.1
20260508055322 60 203 1.0 4.0 0.00 0.00 0.00 85 1015.1
20260508055309 60 239 1.0 4.0 0.00 0.00 0.00 85 1015.1
20260508055306 60 148 1.0 4.0 0.00 0.00 0.00 85 1015.1
20260508055203 60 148 1.0 4.0 0.00 0.00 0.00 85 1015.1
20260508055152 60 239 1.0 4.0 0.00 0.00 0.00 85 1015.2
20260508055002 60 239 1.0 4.0 0.00 0.00 0.00 85 1015.1
20260508054933 60 240 1.0 4.0 0.00 0.00 0.00 85 1015.1
20260508054803 60 239 1.0 4.0 0.00 0.00 0.00 85 1015.1
20260508054703 60 201 1.0 4.0 0.00 0.00 0.00 84 1015.1
20260508054559 60 203 1.0 4.0 0.00 0.00 0.00 84 1015.1
20260508054459 60 205 1.0 5.0 0.00 0.00 0.00 84 1015.1
20260508054400 60 211 2.0 5.0 0.00 0.00 0.00 84 1015.1
20260508054322 60 212 2.0 5.0 0.00 0.00 0.00 84 1015.1
20260508054259 60 158 2.0 5.0 0.00 0.00 0.00 84 1015.1
20260508054158 60 248 2.0 5.0 0.00 0.00 0.00 84 1015.1
20260508054059 60 248 2.0 5.0 0.00 0.00 0.00 84 1015.1
20260508053958 60 248 2.0 5.0 0.00 0.00 0.00 84 1015.1
20260508053859 61 242 2.0 5.0 0.00 0.00 0.00 84 1015.1
20260508053821 61 205 3.0 5.0 0.00 0.00 0.00 83 1015.1
20260508053758 61 143 3.0 8.0 0.00 0.00 0.00 83 1015.1
20260508053659 61 225 3.0 8.0 0.00 0.00 0.00 83 1015.0
20260508053559 61 222 3.0 8.0 0.00 0.00 0.00 83 1015.0
20260508053459 61 210 3.0 8.0 0.00 0.00 0.00 83 1015.0
20260508053359 61 146 3.0 8.0 0.00 0.00 0.00 83 1015.0
20260508053318 61 203 3.0 8.0 0.00 0.00 0.00 83 1015.0
20260508053300 61 238 3.0 8.0 0.00 0.00 0.00 83 1015.0
20260508053159 61 235 3.0 8.0 0.00 0.00 0.00 83 1015.0
20260508053058 61 219 3.0 8.0 0.00 0.00 0.00 83 1015.0
20260508052959 61 233 3.0 8.0 0.00 0.00 0.00 83 1015.0
20260508052859 61 250 3.0 8.0 0.00 0.00 0.00 83 1015.0
20260508052818 61 226 3.0 8.0 0.00 0.00 0.00 83 1015.0
20260508052759 61 260 3.0 7.0 0.00 0.00 0.00 82 1015.0
20260508052655 61 211 3.0 7.0 0.00 0.00 0.00 82 1015.0
20260508052555 61 225 3.0 10.0 0.00 0.00 0.00 82 1015.0
20260508052456 61 207 3.0 10.0 0.00 0.00 0.00 82 1015.0
20260508052357 61 250 3.0 10.0 0.00 0.00 0.00 82 1015.0
20260508052319 62 243 3.0 10.0 0.00 0.00 0.00 82 1015.0
20260508052255 62 232 3.0 10.0 0.00 0.00 0.00 82 1015.0
20260508052155 62 250 3.0 10.0 0.00 0.00 0.00 82 1015.0
20260508052055 62 230 3.0 10.0 0.00 0.00 0.00 82 1015.0
20260508051955 62 245 3.0 10.0 0.00 0.00 0.00 82 1015.0
20260508051856 62 229 3.0 10.0 0.00 0.00 0.00 82 1015.0
20260508051820 62 238 3.0 10.0 0.00 0.00 0.00 82 1015.0
20260508051754 62 239 3.0 10.0 0.00 0.00 0.00 81 1015.0
20260508051655 62 248 3.0 10.0 0.00 0.00 0.00 81 1015.1
20260508051555 62 242 3.0 8.0 0.00 0.00 0.00 81 1015.1
20260508051454 62 245 3.0 8.0 0.00 0.00 0.00 81 1015.1
20260508051355 62 231 2.0 8.0 0.00 0.00 0.00 81 1015.1
20260508051329 62 243 3.0 8.0 0.00 0.00 0.00 81 1015.0
20260508051255 62 248 3.0 8.0 0.00 0.00 0.00 81 1015.0
20260508051155 62 276 2.0 8.0 0.00 0.00 0.00 81 1015.0
20260508051055 62 240 2.0 8.0 0.00 0.00 0.00 81 1015.0
20260508050955 62 238 3.0 8.0 0.00 0.00 0.00 81 1015.0
20260508050856 62 240 3.0 8.0 0.00 0.00 0.00 81 1015.0
20260508050819 62 253 3.0 8.0 0.00 0.00 0.00 81 1014.9
20260508050750 62 233 3.0 8.0 0.00 0.00 0.00 81 1014.9
20260508050651 62 233 3.0 8.0 0.00 0.00 0.00 81 1015.0
20260508050551 62 242 3.0 8.0 0.00 0.00 0.00 80 1014.9
20260508050539 62 267 4.0 10.0 0.00 0.00 0.00 80 1014.9
20260508050451 62 233 3.0 8.0 0.00 0.00 0.00 80 1014.9
20260508050427 62 233 4.0 8.0 0.00 0.00 0.00 80 1014.8
20260508050252 62 238 4.0 11.0 0.00 0.00 0.00 80 1014.9
20260508050150 63 232 4.0 11.0 0.00 0.00 0.00 80 1014.9
20260508050051 63 239 4.0 11.0 0.00 0.00 0.00 80 1014.8
20260508045951 63 242 4.0 11.0 0.00 0.00 0.00 80 1014.8
20260508045851 63 248 4.0 11.0 0.00 0.00 0.00 80 1014.9
20260508045816 63 248 4.0 11.0 0.00 0.00 0.00 80 1014.9
20260508045751 63 235 4.0 11.0 0.00 0.00 0.00 80 1014.9
20260508045651 63 238 4.0 11.0 0.00 0.00 0.00 80 1014.8
20260508045550 63 241 4.0 11.0 0.00 0.00 0.00 80 1014.8
20260508045534 63 245 4.0 11.0 0.00 0.00 0.00 80 1014.8
20260508045451 63 224 5.0 11.0 0.00 0.00 0.00 80 1014.8
20260508045428 63 240 5.0 11.0 0.00 0.00 0.00 80 1014.8
20260508045251 63 243 4.0 11.0 0.00 0.00 0.00 80 1014.8
20260508045151 63 232 4.0 11.0 0.00 0.00 0.00 79 1014.8
20260508045051 63 233 5.0 11.0 0.00 0.00 0.00 79 1014.8
20260508044951 63 255 5.0 11.0 0.00 0.00 0.00 79 1014.8
20260508044847 63 277 4.0 10.0 0.00 0.00 0.00 79 1014.8
20260508044812 63 211 5.0 10.0 0.00 0.00 0.00 79 1014.7
20260508044747 63 235 5.0 10.0 0.00 0.00 0.00 79 1014.7
20260508044649 63 222 4.0 10.0 0.00 0.00 0.00 79 1014.8
20260508044547 63 225 4.0 10.0 0.00 0.00 0.00 79 1014.8
20260508044447 64 239 4.0 10.0 0.00 0.00 0.00 79 1014.7
20260508044347 64 208 4.0 10.0 0.00 0.00 0.00 79 1014.7
20260508044312 64 214 3.0 10.0 0.00 0.00 0.00 79 1014.7
20260508044247 64 205 3.0 10.0 0.00 0.00 0.00 79 1014.7
20260508044147 64 236 3.0 8.0 0.00 0.00 0.00 79 1014.8
20260508044047 64 240 3.0 8.0 0.00 0.00 0.00 79 1014.7
20260508043947 64 239 3.0 8.0 0.00 0.00 0.00 79 1014.7
20260508043847 64 253 3.0 11.0 0.00 0.00 0.00 79 1014.7
20260508043812 64 248 3.0 11.0 0.00 0.00 0.00 79 1014.7
20260508043747 64 250 3.0 11.0 0.00 0.00 0.00 79 1014.7
20260508043650 64 243 3.0 11.0 0.00 0.00 0.00 79 1014.7
20260508043547 64 232 4.0 11.0 0.00 0.00 0.00 79 1014.7
20260508043447 64 243 4.0 11.0 0.00 0.00 0.00 79 1014.7
20260508043347 64 236 4.0 11.0 0.00 0.00 0.00 79 1014.7
20260508043314 64 252 4.0 11.0 0.00 0.00 0.00 79 1014.7
20260508043247 64 239 4.0 11.0 0.00 0.00 0.00 79 1014.7
20260508043147 64 144 4.0 11.0 0.00 0.00 0.00 79 1014.6
20260508043047 64 194 5.0 11.0 0.00 0.00 0.00 79 1014.6
20260508042944 64 214 5.0 11.0 0.00 0.00 0.00 79 1014.6
20260508042843 64 223 5.0 11.0 0.00 0.00 0.00 79 1014.6
20260508042812 64 238 4.0 11.0 0.00 0.00 0.00 78 1014.6
20260508042743 64 219 4.0 11.0 0.00 0.00 0.00 78 1014.6
20260508042643 64 248 5.0 11.0 0.00 0.00 0.00 78 1014.5
20260508042543 65 240 4.0 11.0 0.00 0.00 0.00 78 1014.6
20260508042443 65 242 4.0 11.0 0.00 0.00 0.00 78 1014.6
20260508042343 65 225 4.0 11.0 0.00 0.00 0.00 78 1014.6
20260508042314 65 207 4.0 11.0 0.00 0.00 0.00 78 1014.6
20260508042243 65 259 4.0 8.0 0.00 0.00 0.00 78 1014.6
20260508042144 65 259 4.0 8.0 0.00 0.00 0.00 78 1014.6
20260508042043 65 218 4.0 9.0 0.00 0.00 0.00 78 1014.5
20260508041943 65 232 4.0 9.0 0.00 0.00 0.00 78 1014.6
20260508041843 65 239 4.0 9.0 0.00 0.00 0.00 78 1014.5
20260508041812 65 232 4.0 9.0 0.00 0.00 0.00 78 1014.5
20260508041743 65 229 4.0 9.0 0.00 0.00 0.00 78 1014.5
20260508041643 65 241 4.0 9.0 0.00 0.00 0.00 78 1014.5
20260508041544 65 233 4.0 9.0 0.00 0.00 0.00 78 1014.5
20260508041443 65 236 4.0 9.0 0.00 0.00 0.00 78 1014.5
20260508041343 65 231 4.0 11.0 0.00 0.00 0.00 78 1014.5
20260508041314 65 250 4.0 11.0 0.00 0.00 0.00 78 1014.5
20260508041243 65 250 4.0 11.0 0.00 0.00 0.00 78 1014.5
20260508041143 65 257 4.0 11.0 0.00 0.00 0.00 78 1014.5
20260508041040 65 226 5.0 11.0 0.00 0.00 0.00 78 1014.5
20260508040938 65 248 5.0 11.0 0.00 0.00 0.00 78 1014.5
20260508040839 66 242 5.0 11.0 0.00 0.00 0.00 77 1014.5
20260508040813 66 228 5.0 11.0 0.00 0.00 0.00 77 1014.5
20260508040739 66 243 5.0 11.0 0.00 0.00 0.00 77 1014.5
20260508040639 66 252 5.0 11.0 0.00 0.00 0.00 77 1014.5
20260508040539 66 242 5.0 11.0 0.00 0.00 0.00 77 1014.4
20260508040439 66 228 5.0 11.0 0.00 0.00 0.00 77 1014.4
20260508040338 66 231 5.0 12.0 0.00 0.00 0.00 77 1014.4
20260508040310 66 214 5.0 12.0 0.00 0.00 0.00 77 1014.4
20260508040239 66 236 5.0 12.0 0.00 0.00 0.00 77 1014.4
20260508040139 66 250 5.0 12.0 0.00 0.00 0.00 77 1014.4
20260508040039 66 239 4.0 12.0 0.00 0.00 0.00 77 1014.4
20260508040030 66 217 4.0 12.0 0.00 0.00 0.00 76 1014.4
20260508035939 66 259 4.0 12.0 0.00 0.00 0.00 77 1014.3
20260508035920 66 234 4.0 12.0 0.00 0.00 0.00 76 1014.4
20260508035739 66 274 4.0 12.0 0.00 0.00 0.00 76 1014.3
20260508035639 66 236 4.0 12.0 0.00 0.00 0.00 76 1014.3
20260508035538 67 246 4.0 12.0 0.00 0.00 0.00 76 1014.3
20260508035439 67 236 3.0 12.0 0.00 0.00 0.00 76 1014.3
20260508035338 67 273 3.0 10.0 0.00 0.00 0.00 76 1014.3
20260508035309 67 269 3.0 10.0 0.00 0.00 0.00 76 1014.3
20260508035239 67 238 3.0 10.0 0.00 0.00 0.00 76 1014.3
20260508035134 67 243 3.0 10.0 0.00 0.00 0.00 76 1014.3
20260508035035 67 249 3.0 10.0 0.00 0.00 0.00 76 1014.3
20260508034935 67 224 3.0 10.0 0.00 0.00 0.00 76 1014.3
20260508034836 67 236 3.0 10.0 0.00 0.00 0.00 76 1014.3
20260508034809 67 226 3.0 10.0 0.00 0.00 0.00 76 1014.3
20260508034735 67 242 3.0 10.0 0.00 0.00 0.00 76 1014.2
20260508034635 67 251 3.0 7.0 0.00 0.00 0.00 75 1014.3
20260508034540 67 219 4.0 12.0 0.00 0.00 0.00 75 1014.2
20260508034535 67 239 4.0 12.0 0.00 0.00 0.00 75 1014.2
20260508034435 67 222 4.0 12.0 0.00 0.00 0.00 75 1014.2
20260508034420 67 234 4.0 12.0 0.00 0.00 0.00 75 1014.2
20260508034235 67 243 4.0 12.0 0.00 0.00 0.00 75 1014.2
20260508034135 67 240 4.0 12.0 0.00 0.00 0.00 75 1014.2
20260508034035 67 243 5.0 12.0 0.00 0.00 0.00 75 1014.2
20260508033935 67 236 5.0 12.0 0.00 0.00 0.00 75 1014.2
20260508033835 67 217 5.0 12.0 0.00 0.00 0.00 74 1014.2
20260508033810 67 238 5.0 12.0 0.00 0.00 0.00 74 1014.2
20260508033735 67 239 5.0 12.0 0.00 0.00 0.00 74 1014.2
20260508033635 67 232 5.0 12.0 0.00 0.00 0.00 74 1014.2
20260508033536 67 235 4.0 10.0 0.00 0.00 0.00 74 1014.1
20260508033435 67 239 4.0 10.0 0.00 0.00 0.00 74 1014.1
20260508033335 68 233 4.0 10.0 0.00 0.00 0.00 74 1014.2
20260508033310 68 236 4.0 10.0 0.00 0.00 0.00 74 1014.2
20260508033232 68 236 4.0 10.0 0.00 0.00 0.00 74 1014.2
20260508033131 68 221 4.0 10.0 0.00 0.00 0.00 73 1014.2
20260508033031 68 217 3.0 10.0 0.00 0.00 0.00 73 1014.1
20260508032931 68 239 3.0 8.0 0.00 0.00 0.00 73 1014.1
20260508032831 68 208 2.0 8.0 0.00 0.00 0.00 73 1014.1
20260508032809 68 249 2.0 7.0 0.00 0.00 0.00 73 1014.1
20260508032731 68 238 2.0 7.0 0.00 0.00 0.00 73 1014.2
20260508032631 68 243 2.0 7.0 0.00 0.00 0.00 73 1014.2
20260508032531 68 243 2.0 7.0 0.00 0.00 0.00 73 1014.1
20260508032431 69 248 2.0 7.0 0.00 0.00 0.00 73 1014.1
20260508032332 69 215 2.0 5.0 0.00 0.00 0.00 73 1014.1
20260508032309 69 215 2.0 5.0 0.00 0.00 0.00 72 1014.1
20260508032231 69 229 2.0 5.0 0.00 0.00 0.00 72 1014.1
20260508032131 69 243 3.0 6.0 0.00 0.00 0.00 72 1014.1
20260508032031 69 236 3.0 9.0 0.00 0.00 0.00 72 1014.1
20260508031931 69 236 3.0 9.0 0.00 0.00 0.00 72 1014.1
20260508031831 69 240 3.0 9.0 0.00 0.00 0.00 72 1014.1
20260508031805 69 243 3.0 9.0 0.00 0.00 0.00 72 1014.1
20260508031731 69 232 3.0 9.0 0.00 0.00 0.00 72 1014.0
20260508031631 69 239 4.0 9.0 0.00 0.00 0.00 72 1014.0
20260508031530 69 228 4.0 9.0 0.00 0.00 0.00 72 1014.0
20260508031432 69 239 4.0 9.0 0.00 0.00 0.00 73 1014.0
20260508031329 69 239 5.0 9.0 0.00 0.00 0.00 72 1014.0
20260508031305 69 243 5.0 9.0 0.00 0.00 0.00 72 1014.0
20260508031227 69 235 4.0 9.0 0.00 0.00 0.00 72 1014.0
20260508031031 70 248 5.0 12.0 0.00 0.00 0.00 72 1013.9
20260508030927 70 238 5.0 12.0 0.00 0.00 0.00 72 1013.9
20260508030827 70 243 5.0 12.0 0.00 0.00 0.00 72 1013.9
20260508030804 70 221 5.0 12.0 0.00 0.00 0.00 72 1013.9
20260508030727 70 214 5.0 12.0 0.00 0.00 0.00 72 1013.9
20260508030628 70 225 5.0 12.0 0.00 0.00 0.00 72 1013.9
20260508030528 70 232 5.0 12.0 0.00 0.00 0.00 72 1013.9
20260508030427 70 229 5.0 12.0 0.00 0.00 0.00 72 1014.0
20260508030327 71 255 4.0 12.0 0.00 0.00 0.00 72 1013.9
20260508030304 71 239 4.0 12.0 0.00 0.00 0.00 72 1013.9
20260508030228 71 236 4.0 12.0 0.00 0.00 0.00 72 1013.9
20260508030128 71 242 4.0 12.0 0.00 0.00 0.00 71 1013.9
20260508030027 71 256 4.0 10.0 0.00 0.00 0.00 71 1013.9
20260508025927 71 197 4.0 11.0 0.00 0.00 0.00 71 1013.9
20260508025827 71 253 4.0 11.0 0.00 0.00 0.00 71 1013.9
20260508025809 71 216 4.0 11.0 0.00 0.00 0.00 71 1013.9
20260508025726 72 213 4.0 11.0 0.00 0.00 0.00 71 1013.9
20260508025627 72 148 4.0 11.0 0.00 0.00 0.00 71 1013.9
20260508025527 72 201 4.0 11.0 0.00 0.00 0.00 70 1013.9
20260508025423 72 233 4.0 11.0 0.00 0.00 0.00 70 1013.9
20260508025323 72 233 4.0 11.0 0.00 0.00 0.00 70 1013.9
20260508025306 72 231 4.0 11.0 0.00 0.00 0.00 70 1013.9
20260508025223 72 231 4.0 11.0 0.00 0.00 0.00 70 1013.9
20260508025124 72 232 4.0 11.0 0.00 0.00 0.00 70 1013.8
20260508025024 72 207 4.0 11.0 0.00 0.00 0.00 69 1013.9
20260508024923 72 228 4.0 10.0 0.00 0.00 0.00 69 1013.8
20260508024824 73 240 3.0 10.0 0.00 0.00 0.00 69 1013.8
20260508024805 73 245 3.0 7.0 0.00 0.00 0.00 69 1013.8
20260508024723 73 250 3.0 7.0 0.00 0.00 0.00 69 1013.8
20260508024623 73 207 4.0 7.0 0.00 0.00 0.00 69 1013.9
20260508024525 73 249 4.0 7.0 0.00 0.00 0.00 69 1013.8
20260508024423 73 236 4.0 9.0 0.00 0.00 0.00 69 1013.9
20260508024323 73 231 4.0 9.0 0.00 0.00 0.00 69 1013.8
20260508024306 73 241 4.0 9.0 0.00 0.00 0.00 69 1013.8
20260508024223 73 146 4.0 9.0 0.00 0.00 0.00 69 1013.8
20260508024123 73 219 4.0 9.0 0.00 0.00 0.00 68 1013.8
20260508024024 74 245 4.0 9.0 0.00 0.00 0.00 68 1013.8
20260508023923 74 264 5.0 9.0 0.00 0.00 0.00 68 1013.8
20260508023824 74 245 4.0 9.0 0.00 0.00 0.00 68 1013.8
20260508023805 74 228 4.0 9.0 0.00 0.00 0.00 67 1013.8
20260508023723 74 207 5.0 9.0 0.00 0.00 0.00 67 1013.8
20260508023623 74 226 5.0 9.0 0.00 0.00 0.00 67 1013.8
20260508023525 74 262 4.0 9.0 0.00 0.00 0.00 66 1013.8
20260508023519 74 248 5.0 9.0 0.00 0.00 0.00 66 1013.8
20260508023419 74 209 5.0 9.0 0.00 0.00 0.00 66 1013.8
20260508023411 74 240 4.0 9.0 0.00 0.00 0.00 66 1013.8
20260508023219 74 235 4.0 9.0 0.00 0.00 0.00 66 1013.7
20260508023119 74 253 5.0 9.0 0.00 0.00 0.00 66 1013.7
20260508023018 74 221 5.0 11.0 0.00 0.00 0.00 66 1013.7
20260508022919 74 228 5.0 12.0 0.00 0.00 0.00 65 1013.7
20260508022819 75 236 5.0 12.0 0.00 0.00 0.00 65 1013.7
20260508022801 75 207 5.0 12.0 0.00 0.00 0.00 65 1013.7
20260508022718 75 235 5.0 12.0 0.00 0.00 0.00 65 1013.7
20260508022620 75 205 5.0 12.0 0.00 0.00 0.00 65 1013.7
20260508022519 75 212 5.0 12.0 0.00 0.00 0.00 64 1013.7
20260508022419 75 240 6.0 14.0 0.00 0.00 0.00 64 1013.7
20260508022319 75 270 6.0 14.0 0.00 0.00 0.00 64 1013.7
20260508022301 75 277 6.0 14.0 0.00 0.00 0.00 64 1013.7
20260508022219 75 238 7.0 14.0 0.00 0.00 0.00 63 1013.7
20260508022120 75 201 7.0 14.0 0.00 0.00 0.00 63 1013.7
20260508022019 76 229 6.0 14.0 0.00 0.00 0.00 62 1013.7
20260508021919 76 255 6.0 14.0 0.00 0.00 0.00 61 1013.6
20260508021819 76 256 6.0 14.0 0.00 0.00 0.00 61 1013.6
20260508021800 76 252 6.0 14.0 0.00 0.00 0.00 61 1013.6
20260508021719 76 277 6.0 14.0 0.00 0.00 0.00 61 1013.6
20260508021615 76 200 5.0 14.0 0.00 0.00 0.00 61 1013.7
20260508021515 76 233 5.0 14.0 0.00 0.00 0.00 61 1013.6
20260508021415 76 248 5.0 13.0 0.00 0.00 0.00 61 1013.6
20260508021315 76 243 5.0 12.0 0.00 0.00 0.00 61 1013.6
20260508021301 76 214 5.0 12.0 0.00 0.00 0.00 61 1013.6
20260508021215 77 251 5.0 12.0 0.00 0.00 0.00 62 1013.6
20260508021115 77 225 5.0 10.0 0.00 0.00 0.00 63 1013.5
20260508021015 77 210 5.0 10.0 0.00 0.00 0.00 63 1013.6
20260508020914 77 221 5.0 10.0 0.00 0.00 0.00 63 1013.5
20260508020815 77 236 5.0 10.0 0.00 0.00 0.00 64 1013.5
20260508020801 77 238 5.0 10.0 0.00 0.00 0.00 64 1013.5
20260508020715 77 242 5.0 10.0 0.00 0.00 0.00 63 1013.5
20260508020615 77 228 5.0 10.0 0.00 0.00 0.00 63 1013.6
20260508020515 77 243 5.0 10.0 0.00 0.00 0.00 63 1013.6
20260508020414 77 256 5.0 10.0 0.00 0.00 0.00 63 1013.6
20260508020315 78 211 5.0 10.0 0.00 0.00 0.00 63 1013.6
20260508020301 78 236 5.0 10.0 0.00 0.00 0.00 63 1013.6
20260508020215 78 228 4.0 10.0 0.00 0.00 0.00 63 1013.6
20260508020115 78 228 4.0 10.0 0.00 0.00 0.00 63 1013.5
20260508020027 78 243 3.0 9.0 0.00 0.00 0.00 62 1013.5
20260508020015 78 250 4.0 10.0 0.00 0.00 0.00 62 1013.6
20260508015920 78 253 3.0 9.0 0.00 0.00 0.00 63 1013.5
20260508015911 78 187 3.0 9.0 0.00 0.00 0.00 62 1013.5
20260508015711 78 219 3.0 8.0 0.00 0.00 0.00 63 1013.6
20260508015611 78 250 3.0 8.0 0.00 0.00 0.00 63 1013.5
20260508015511 78 214 3.0 10.0 0.00 0.00 0.00 63 1013.5
20260508015410 78 250 3.0 11.0 0.00 0.00 0.00 63 1013.5
20260508015312 78 229 3.0 11.0 0.00 0.00 0.00 63 1013.6
20260508015305 78 241 3.0 11.0 0.00 0.00 0.00 63 1013.6
20260508015211 79 228 3.0 11.0 0.00 0.00 0.00 62 1013.6
20260508015111 79 277 4.0 11.0 0.00 0.00 0.00 62 1013.5
20260508015011 79 218 3.0 11.0 0.00 0.00 0.00 62 1013.5
20260508014911 79 233 4.0 11.0 0.00 0.00 0.00 62 1013.6
20260508014811 79 233 4.0 11.0 0.00 0.00 0.00 62 1013.6
20260508014758 79 242 4.0 11.0 0.00 0.00 0.00 62 1013.6
20260508014711 79 229 4.0 11.0 0.00 0.00 0.00 62 1013.6
20260508014611 79 191 4.0 11.0 0.00 0.00 0.00 61 1013.5
20260508014511 79 233 4.0 11.0 0.00 0.00 0.00 61 1013.6
20260508014411 80 217 3.0 7.0 0.00 0.00 0.00 61 1013.6
20260508014310 80 274 3.0 7.0 0.00 0.00 0.00 61 1013.6
20260508014257 80 224 3.0 7.0 0.00 0.00 0.00 61 1013.6
20260508014211 80 241 3.0 7.0 0.00 0.00 0.00 60 1013.6
20260508014111 80 225 3.0 7.0 0.00 0.00 0.00 60 1013.6
20260508014011 80 269 2.0 7.0 0.00 0.00 0.00 60 1013.6
20260508013911 80 226 2.0 7.0 0.00 0.00 0.00 59 1013.6
20260508013809 80 233 2.0 7.0 0.00 0.00 0.00 58 1013.6
20260508013758 80 239 2.0 7.0 0.00 0.00 0.00 58 1013.6
20260508013707 80 226 2.0 7.0 0.00 0.00 0.00 59 1013.6
20260508013607 80 225 2.0 7.0 0.00 0.00 0.00 58 1013.6
20260508013507 80 240 2.0 7.0 0.00 0.00 0.00 58 1013.6
20260508013406 80 235 2.0 7.0 0.00 0.00 0.00 58 1013.6
20260508013310 80 236 2.0 7.0 0.00 0.00 0.00 58 1013.6
20260508013258 80 260 2.0 7.0 0.00 0.00 0.00 58 1013.6
20260508013207 80 246 2.0 7.0 0.00 0.00 0.00 58 1013.6
20260508013107 80 235 2.0 6.0 0.00 0.00 0.00 59 1013.6
20260508013007 80 235 2.0 6.0 0.00 0.00 0.00 59 1013.6
20260508012907 80 234 2.0 6.0 0.00 0.00 0.00 58 1013.6
20260508012808 80 226 2.0 6.0 0.00 0.00 0.00 58 1013.6
20260508012757 80 226 2.0 6.0 0.00 0.00 0.00 58 1013.6
20260508012707 80 222 2.0 6.0 0.00 0.00 0.00 58 1013.6
20260508012607 81 208 2.0 6.0 0.00 0.00 0.00 58 1013.6
20260508012507 81 238 2.0 6.0 0.00 0.00 0.00 58 1013.6
20260508012406 81 207 2.0 5.0 0.00 0.00 0.00 58 1013.6
20260508012308 81 210 2.0 5.0 0.00 0.00 0.00 57 1013.6
20260508012256 81 242 2.0 5.0 0.00 0.00 0.00 57 1013.6
20260508012207 81 243 1.0 5.0 0.00 0.00 0.00 57 1013.6
20260508012107 81 243 1.0 5.0 0.00 0.00 0.00 57 1013.6
20260508012007 81 250 1.0 5.0 0.00 0.00 0.00 58 1013.6
20260508011903 81 248 1.0 5.0 0.00 0.00 0.00 58 1013.6
20260508011811 81 249 1.0 5.0 0.00 0.00 0.00 58 1013.6
20260508011758 81 225 1.0 5.0 0.00 0.00 0.00 58 1013.6
20260508011708 81 253 1.0 5.0 0.00 0.00 0.00 58 1013.6
20260508011603 81 226 1.0 5.0 0.00 0.00 0.00 58 1013.6
20260508011504 81 243 0.0 5.0 0.00 0.00 0.00 58 1013.6
20260508011403 81 322 0.0 3.0 0.00 0.00 0.00 59 1013.6
20260508011307 81 322 0.0 3.0 0.00 0.00 0.00 58 1013.6
20260508011257 81 323 0.0 3.0 0.00 0.00 0.00 58 1013.6
20260508011203 81 323 0.0 3.0 0.00 0.00 0.00 57 1013.6
20260508011103 81 323 1.0 5.0 0.00 0.00 0.00 58 1013.6
20260508011002 81 339 1.0 6.0 0.00 0.00 0.00 58 1013.6
20260508010903 81 339 1.0 6.0 0.00 0.00 0.00 58 1013.7
20260508010811 81 231 1.0 6.0 0.00 0.00 0.00 58 1013.7
20260508010800 81 232 1.0 6.0 0.00 0.00 0.00 58 1013.7
20260508010704 81 232 1.0 6.0 0.00 0.00 0.00 58 1013.7
20260508010603 81 232 1.0 6.0 0.00 0.00 0.00 58 1013.6
20260508010503 81 232 1.0 6.0 0.00 0.00 0.00 57 1013.6
20260508010403 81 232 1.0 6.0 0.00 0.00 0.00 58 1013.7
20260508010252 81 232 1.0 6.0 0.00 0.00 0.00 57 1013.6
20260508010204 81 229 1.0 6.0 0.00 0.00 0.00 57 1013.6
20260508010010 82 224 1.0 6.0 0.00 0.00 0.00 58 1013.7
20260508005959 82 222 0.0 5.0 0.00 0.00 0.00 58 1013.7
20260508005912 82 224 1.0 6.0 0.00 0.00 0.00 58 1013.7
20260508005903 82 224 1.0 6.0 0.00 0.00 0.00 58 1013.7
20260508005659 82 224 1.0 6.0 0.00 0.00 0.00 58 1013.6
20260508005559 82 223 1.0 6.0 0.00 0.00 0.00 58 1013.6
20260508005459 82 224 1.0 6.0 0.00 0.00 0.00 58 1013.7
20260508005359 82 224 1.0 6.0 0.00 0.00 0.00 58 1013.7
20260508005252 82 224 1.0 6.0 0.00 0.00 0.00 58 1013.7
20260508005201 82 224 1.0 6.0 0.00 0.00 0.00 57 1013.7
20260508005059 82 238 1.0 6.0 0.00 0.00 0.00 57 1013.6
20260508004959 82 248 0.0 6.0 0.00 0.00 0.00 57 1013.7
20260508004859 82 235 0.0 3.0 0.00 0.00 0.00 57 1013.7
20260508004753 82 240 0.0 3.0 0.00 0.00 0.00 57 1013.7
20260508004700 82 242 1.0 7.0 0.00 0.00 0.00 56 1013.7
20260508004559 82 242 1.0 7.0 0.00 0.00 0.00 56 1013.7
20260508004459 82 242 1.0 7.0 0.00 0.00 0.00 56 1013.8
20260508004359 82 242 1.0 7.0 0.00 0.00 0.00 56 1013.7
20260508004304 82 242 1.0 7.0 0.00 0.00 0.00 56 1013.7
20260508004253 82 241 1.0 7.0 0.00 0.00 0.00 56 1013.7
20260508004159 82 242 1.0 7.0 0.00 0.00 0.00 56 1013.7
20260508004055 82 242 1.0 7.0 0.00 0.00 0.00 56 1013.7
20260508003955 82 242 1.0 7.0 0.00 0.00 0.00 55 1013.7
20260508003855 82 235 1.0 7.0 0.00 0.00 0.00 55 1013.7
20260508003757 82 218 1.0 7.0 0.00 0.00 0.00 54 1013.8
20260508003655 82 233 1.0 7.0 0.00 0.00 0.00 55 1013.8
20260508003555 83 233 1.0 7.0 0.00 0.00 0.00 54 1013.8
20260508003455 83 233 1.0 7.0 0.00 0.00 0.00 54 1013.8
20260508003355 83 233 1.0 7.0 0.00 0.00 0.00 54 1013.8
20260508003256 83 229 1.0 7.0 0.00 0.00 0.00 53 1013.8
20260508003155 83 146 1.0 7.0 0.00 0.00 0.00 53 1013.8
20260508003055 83 222 1.0 7.0 0.00 0.00 0.00 53 1013.8
20260508003019 83 246 1.0 5.0 0.00 0.00 0.00 53 1013.8
20260508002954 83 357 0.0 3.0 0.00 0.00 0.00 54 1013.8
20260508002913 83 246 1.0 5.0 0.00 0.00 0.00 54 1013.8
20260508002903 83 246 1.0 5.0 0.00 0.00 0.00 53 1013.8
20260508002655 83 263 1.0 5.0 0.00 0.00 0.00 53 1013.8
20260508002556 83 263 1.0 5.0 0.00 0.00 0.00 53 1013.8
20260508002455 83 263 1.0 5.0 0.00 0.00 0.00 54 1013.8
20260508002355 83 263 1.0 5.0 0.00 0.00 0.00 54 1013.8
20260508002257 83 263 1.0 5.0 0.00 0.00 0.00 53 1013.8
20260508002151 83 263 1.0 5.0 0.00 0.00 0.00 52 1013.8
20260508001951 84 252 1.0 5.0 0.00 0.00 0.00 52 1013.8
20260508001851 84 217 1.0 5.0 0.00 0.00 0.00 51 1013.8
20260508001807 84 243 1.0 5.0 0.00 0.00 0.00 52 1013.9
20260508001655 84 231 1.0 5.0 0.00 0.00 0.00 51 1013.8
20260508001551 84 248 1.0 5.0 0.00 0.00 0.00 50 1013.8
20260508001451 84 245 1.0 5.0 0.00 0.00 0.00 51 1013.8
20260508001351 84 246 1.0 5.0 0.00 0.00 0.00 51 1013.8
20260508001254 84 198 1.0 5.0 0.00 0.00 0.00 52 1013.8
20260508001151 84 218 1.0 5.0 0.00 0.00 0.00 52 1013.9
20260508001051 84 217 1.0 5.0 0.00 0.00 0.00 51 1013.9
20260508000951 84 218 1.0 8.0 0.00 0.00 0.00 51 1013.8
20260508000852 84 222 1.0 8.0 0.00 0.00 0.00 51 1013.8
20260508000755 84 233 1.0 8.0 0.00 0.00 0.00 52 1013.8
20260508000651 84 150 1.0 8.0 0.00 0.00 0.00 52 1013.8
20260508000551 84 221 2.0 8.0 0.00 0.00 0.00 52 1013.8
20260508000451 84 165 2.0 8.0 0.00 0.00 0.00 53 1013.8
20260508000351 84 250 2.0 8.0 0.00 0.00 0.00 54 1013.9
20260508000250 84 288 2.0 8.0 0.00 0.00 0.00 54 1013.9
20260508000147 83 282 2.0 8.0 0.00 0.00 0.00 53 1013.8
20260508000047 83 260 2.0 8.0 0.00 0.00 0.00 53 1013.7
20260507235947 83 307 2.0 8.0 0.00 0.00 0.00 53 1013.8
20260507235847 84 307 3.0 8.0 0.00 0.00 0.00 52 1013.8
20260507235747 84 325 3.0 8.0 0.00 0.00 0.00 52 1013.8
20260507235651 84 245 3.0 8.0 0.00 0.00 0.00 52 1013.8
20260507235547 84 224 3.0 8.0 0.00 0.00 0.00 53 1013.8
20260507235446 84 231 3.0 8.0 0.00 0.00 0.00 52 1013.8
20260507235347 84 110 4.0 8.0 0.00 0.00 0.00 52 1013.8
20260507235255 83 158 3.0 8.0 0.00 0.00 0.00 52 1013.8
20260507235247 83 159 3.0 8.0 0.00 0.00 0.00 52 1013.8
20260507235147 83 266 4.0 8.0 0.00 0.00 0.00 52 1013.8
20260507235047 83 143 4.0 9.0 0.00 0.00 0.00 52 1013.8
20260507235017 84 226 4.0 9.0 0.00 0.00 0.00 51 1013.8
20260507234947 83 253 4.0 9.0 0.00 0.00 0.00 52 1013.8
20260507234905 84 253 4.0 9.0 0.00 0.00 0.00 51 1013.8
20260507234747 84 230 4.0 9.0 0.00 0.00 0.00 51 1013.8
20260507234652 84 210 4.0 9.0 0.00 0.00 0.00 51 1013.8
20260507234546 84 243 3.0 9.0 0.00 0.00 0.00 52 1013.8
20260507234510 85 176 3.0 9.0 0.00 0.00 0.00 51 1013.8
20260507234447 84 225 3.0 9.0 0.00 0.00 0.00 51 1013.8
20260507234359 84 249 3.0 9.0 0.00 0.00 0.00 52 1013.8
20260507234243 85 138 3.0 9.0 0.00 0.00 0.00 51 1013.9
20260507234143 85 236 3.0 9.0 0.00 0.00 0.00 50 1013.9
20260507234043 85 225 2.0 8.0 0.00 0.00 0.00 51 1013.9
20260507233943 85 236 2.0 8.0 0.00 0.00 0.00 51 1013.9
20260507233843 86 215 2.0 8.0 0.00 0.00 0.00 50 1013.8
20260507233749 86 193 1.0 7.0 0.00 0.00 0.00 50 1013.8
20260507233743 86 193 1.0 7.0 0.00 0.00 0.00 50 1013.9
20260507233643 86 217 1.0 7.0 0.00 0.00 0.00 50 1013.8
20260507233543 86 229 1.0 7.0 0.00 0.00 0.00 51 1013.9
20260507233443 86 228 2.0 7.0 0.00 0.00 0.00 50 1013.9
20260507233342 86 167 2.0 7.0 0.00 0.00 0.00 50 1013.9
20260507233252 86 146 2.0 7.0 0.00 0.00 0.00 52 1013.9
20260507233243 86 150 2.0 7.0 0.00 0.00 0.00 52 1013.8
20260507233143 86 158 2.0 7.0 0.00 0.00 0.00 52 1013.9
20260507233043 85 150 2.0 7.0 0.00 0.00 0.00 51 1013.9
20260507232942 85 149 2.0 7.0 0.00 0.00 0.00 51 1013.9
20260507232843 85 146 2.0 8.0 0.00 0.00 0.00 52 1013.9
20260507232743 85 224 2.0 8.0 0.00 0.00 0.00 51 1013.9
20260507232644 85 219 2.0 8.0 0.00 0.00 0.00 52 1013.9
20260507232543 85 167 1.0 8.0 0.00 0.00 0.00 51 1013.9
20260507232439 85 163 1.0 8.0 0.00 0.00 0.00 51 1013.9
20260507232339 85 239 1.0 8.0 0.00 0.00 0.00 52 1013.9
20260507232239 85 304 1.0 8.0 0.00 0.00 0.00 53 1013.9
20260507232139 85 240 2.0 8.0 0.00 0.00 0.00 52 1013.9
20260507232038 85 240 2.0 8.0 0.00 0.00 0.00 52 1014.0
20260507231939 85 240 1.0 8.0 0.00 0.00 0.00 51 1014.0
20260507231839 85 314 1.0 5.0 0.00 0.00 0.00 52 1014.0
20260507231746 85 219 1.0 5.0 0.00 0.00 0.00 52 1014.0
20260507231738 85 219 2.0 5.0 0.00 0.00 0.00 52 1014.0
20260507231639 85 219 2.0 5.0 0.00 0.00 0.00 52 1014.0
20260507231538 85 219 1.0 5.0 0.00 0.00 0.00 51 1014.0
20260507231439 85 210 1.0 5.0 0.00 0.00 0.00 50 1014.1
20260507231339 85 235 1.0 5.0 0.00 0.00 0.00 51 1014.1
20260507231241 85 145 1.0 5.0 0.00 0.00 0.00 53 1014.1
20260507231232 84 235 1.0 4.0 0.00 0.00 0.00 53 1014.2
20260507231139 85 145 1.0 5.0 0.00 0.00 0.00 52 1014.1
20260507231117 85 229 1.0 5.0 0.00 0.00 0.00 53 1014.1
20260507230939 84 350 1.0 4.0 0.00 0.00 0.00 53 1014.1
20260507230905 84 6 1.0 4.0 0.00 0.00 0.00 53 1014.2
20260507230740 84 235 1.0 4.0 0.00 0.00 0.00 53 1014.2
20260507230641 84 256 1.0 5.0 0.00 0.00 0.00 53 1014.2
20260507230537 84 194 1.0 5.0 0.00 0.00 0.00 53 1014.2
20260507230435 84 316 2.0 5.0 0.00 0.00 0.00 53 1014.2
20260507230334 84 316 2.0 5.0 0.00 0.00 0.00 53 1014.2
20260507230251 84 316 2.0 5.0 0.00 0.00 0.00 52 1014.2
20260507230242 84 316 2.0 5.0 0.00 0.00 0.00 52 1014.3
20260507230134 84 316 2.0 6.0 0.00 0.00 0.00 52 1014.3
20260507230035 84 239 3.0 6.0 0.00 0.00 0.00 53 1014.3
20260507225935 84 238 3.0 6.0 0.00 0.00 0.00 53 1014.3
20260507225839 84 228 3.0 6.0 0.00 0.00 0.00 53 1014.4
20260507225739 84 228 3.0 6.0 0.00 0.00 0.00 52 1014.4
20260507225635 84 210 3.0 6.0 0.00 0.00 0.00 52 1014.4
20260507225535 84 221 3.0 6.0 0.00 0.00 0.00 53 1014.4
20260507225435 84 208 3.0 6.0 0.00 0.00 0.00 53 1014.4
20260507225336 84 243 3.0 6.0 0.00 0.00 0.00 54 1014.4
20260507225245 84 141 3.0 6.0 0.00 0.00 0.00 53 1014.4
20260507225235 84 156 3.0 6.0 0.00 0.00 0.00 53 1014.4
20260507225135 84 215 3.0 8.0 0.00 0.00 0.00 52 1014.4
20260507225035 84 235 3.0 8.0 0.00 0.00 0.00 52 1014.5
20260507224934 85 214 2.0 8.0 0.00 0.00 0.00 52 1014.5
20260507224835 85 236 2.0 8.0 0.00 0.00 0.00 52 1014.5
20260507224735 85 225 2.0 8.0 0.00 0.00 0.00 52 1014.5
20260507224630 85 231 2.0 8.0 0.00 0.00 0.00 53 1014.5
20260507224531 85 255 2.0 8.0 0.00 0.00 0.00 52 1014.5
20260507224431 85 256 2.0 8.0 0.00 0.00 0.00 53 1014.6
20260507224331 85 250 2.0 8.0 0.00 0.00 0.00 52 1014.5
20260507224242 85 242 2.0 8.0 0.00 0.00 0.00 52 1014.6
20260507224235 85 217 2.0 8.0 0.00 0.00 0.00 52 1014.6
20260507224131 84 207 2.0 6.0 0.00 0.00 0.00 55 1014.6
20260507224031 84 224 2.0 6.0 0.00 0.00 0.00 55 1014.6
20260507223931 84 224 2.0 6.0 0.00 0.00 0.00 54 1014.6
20260507223831 84 224 2.0 6.0 0.00 0.00 0.00 54 1014.6
20260507223731 84 224 2.0 6.0 0.00 0.00 0.00 54 1014.6
20260507223631 84 224 2.0 6.0 0.00 0.00 0.00 53 1014.6
20260507223531 84 275 2.0 6.0 0.00 0.00 0.00 52 1014.6
20260507223431 85 236 2.0 6.0 0.00 0.00 0.00 51 1014.7
20260507223331 85 226 1.0 6.0 0.00 0.00 0.00 51 1014.7
20260507223231 85 218 1.0 5.0 0.00 0.00 0.00 51 1014.7
20260507223131 85 281 1.0 5.0 0.00 0.00 0.00 51 1014.8
20260507223031 86 224 0.0 5.0 0.00 0.00 0.00 50 1014.8
20260507222930 86 237 0.0 3.0 0.00 0.00 0.00 51 1014.7
20260507222831 86 235 0.0 3.0 0.00 0.00 0.00 52 1014.8
20260507222741 86 235 0.0 2.0 0.00 0.00 0.00 52 1014.8
20260507222727 86 245 0.0 2.0 0.00 0.00 0.00 52 1014.8
20260507222627 86 245 0.0 2.0 0.00 0.00 0.00 51 1014.8
20260507222527 86 245 1.0 4.0 0.00 0.00 0.00 51 1014.8
20260507222427 86 246 1.0 4.0 0.00 0.00 0.00 51 1014.9
20260507222327 86 243 1.0 6.0 0.00 0.00 0.00 51 1014.9
20260507222227 86 271 1.0 6.0 0.00 0.00 0.00 52 1014.9
20260507222126 86 262 1.0 6.0 0.00 0.00 0.00 53 1015.0
20260507222028 85 139 1.0 6.0 0.00 0.00 0.00 54 1015.0
20260507222000 85 226 1.0 6.0 0.00 0.00 0.00 53 1015.0
20260507221926 85 226 1.0 6.0 0.00 0.00 0.00 53 1015.0
20260507221851 85 226 1.0 6.0 0.00 0.00 0.00 53 1015.0
20260507221728 85 226 1.0 6.0 0.00 0.00 0.00 53 1015.0
20260507221627 85 277 1.0 6.0 0.00 0.00 0.00 53 1015.0
20260507221527 85 276 1.0 6.0 0.00 0.00 0.00 52 1015.0
20260507221427 85 218 1.0 6.0 0.00 0.00 0.00 51 1015.1
20260507221327 85 125 1.0 5.0 0.00 0.00 0.00 51 1015.1
20260507221240 85 205 1.0 5.0 0.00 0.00 0.00 52 1015.1
20260507221233 83 204 1.0 4.0 0.00 0.00 0.00 53 1015.2
20260507221227 85 177 1.0 4.0 0.00 0.00 0.00 52 1015.1
20260507221126 84 194 1.0 4.0 0.00 0.00 0.00 54 1015.2
20260507221114 84 93 1.0 4.0 0.00 0.00 0.00 54 1015.2
20260507220927 84 63 1.0 4.0 0.00 0.00 0.00 54 1015.2
20260507220851 83 63 1.0 4.0 0.00 0.00 0.00 54 1015.2
20260507220723 83 174 1.0 4.0 0.00 0.00 0.00 53 1015.2
20260507220623 83 304 1.0 4.0 0.00 0.00 0.00 54 1015.2
20260507220523 83 325 1.0 4.0 0.00 0.00 0.00 53 1015.3
20260507220423 83 312 1.0 4.0 0.00 0.00 0.00 54 1015.3
20260507220323 83 231 1.0 4.0 0.00 0.00 0.00 54 1015.3
20260507220225 83 231 1.0 4.0 0.00 0.00 0.00 54 1015.3
20260507220123 83 218 1.0 5.0 0.00 0.00 0.00 53 1015.3
20260507220023 83 221 1.0 5.0 0.00 0.00 0.00 54 1015.4
20260507215924 83 219 1.0 5.0 0.00 0.00 0.00 54 1015.4
20260507215823 83 219 1.0 5.0 0.00 0.00 0.00 54 1015.4
20260507215723 83 219 1.0 5.0 0.00 0.00 0.00 55 1015.4
20260507215623 83 219 1.0 5.0 0.00 0.00 0.00 54 1015.4
20260507215523 83 219 1.0 5.0 0.00 0.00 0.00 53 1015.5
20260507215424 83 219 1.0 5.0 0.00 0.00 0.00 53 1015.4
20260507215322 83 160 1.0 5.0 0.00 0.00 0.00 52 1015.4
20260507215237 83 332 1.0 5.0 0.00 0.00 0.00 52 1015.5
20260507215223 83 321 1.0 5.0 0.00 0.00 0.00 52 1015.5
20260507215122 84 307 1.0 5.0 0.00 0.00 0.00 51 1015.5
20260507215024 84 319 1.0 5.0 0.00 0.00 0.00 52 1015.5
20260507214919 84 117 1.0 5.0 0.00 0.00 0.00 52 1015.4
20260507214820 84 141 0.0 4.0 0.00 0.00 0.00 54 1015.5
20260507214736 83 239 1.0 3.0 0.00 0.00 0.00 54 1015.5
20260507214719 83 238 1.0 3.0 0.00 0.00 0.00 54 1015.5
20260507214619 83 239 1.0 3.0 0.00 0.00 0.00 53 1015.5
20260507214519 83 238 1.0 3.0 0.00 0.00 0.00 53 1015.6
20260507214419 83 218 1.0 4.0 0.00 0.00 0.00 53 1015.6
20260507214320 83 226 1.0 4.0 0.00 0.00 0.00 54 1015.6
20260507214237 83 214 1.0 4.0 0.00 0.00 0.00 55 1015.6
20260507214220 83 153 1.0 4.0 0.00 0.00 0.00 55 1015.6
20260507214119 82 160 1.0 6.0 0.00 0.00 0.00 55 1015.6
20260507214019 82 49 1.0 6.0 0.00 0.00 0.00 55 1015.6
20260507213920 82 49 1.0 6.0 0.00 0.00 0.00 56 1015.6
20260507213819 82 53 2.0 6.0 0.00 0.00 0.00 55 1015.6
20260507213736 81 58 2.0 6.0 0.00 0.00 0.00 55 1015.6
20260507213718 81 53 2.0 6.0 0.00 0.00 0.00 55 1015.6
20260507213619 81 345 2.0 6.0 0.00 0.00 0.00 54 1015.7
20260507213519 82 317 1.0 6.0 0.00 0.00 0.00 55 1015.7
20260507213419 82 332 1.0 6.0 0.00 0.00 0.00 55 1015.7
20260507213319 82 43 1.0 6.0 0.00 0.00 0.00 54 1015.7
20260507213237 82 346 1.0 6.0 0.00 0.00 0.00 54 1015.8
20260507213219 82 318 1.0 6.0 0.00 0.00 0.00 55 1015.8
20260507213120 82 335 1.0 4.0 0.00 0.00 0.00 55 1015.8
20260507213014 82 318 1.0 4.0 0.00 0.00 0.00 53 1015.8
20260507212954 82 314 1.0 4.0 0.00 0.00 0.00 54 1015.8
20260507212916 82 318 1.0 4.0 0.00 0.00 0.00 53 1015.8
20260507212849 82 318 1.0 4.0 0.00 0.00 0.00 54 1015.8
20260507212715 82 314 1.0 4.0 0.00 0.00 0.00 54 1015.8
20260507212615 82 330 1.0 4.0 0.00 0.00 0.00 53 1015.8
20260507212515 82 330 1.0 4.0 0.00 0.00 0.00 55 1015.9
20260507212414 82 325 1.0 4.0 0.00 0.00 0.00 55 1015.8
20260507212315 82 341 1.0 4.0 0.00 0.00 0.00 55 1015.9
20260507212250 82 342 1.0 4.0 0.00 0.00 0.00 55 1015.9
20260507212215 82 342 1.0 4.0 0.00 0.00 0.00 55 1015.9
20260507212115 82 342 1.0 4.0 0.00 0.00 0.00 53 1015.9
20260507212015 82 104 1.0 4.0 0.00 0.00 0.00 53 1015.9
20260507211915 83 225 1.0 4.0 0.00 0.00 0.00 53 1016.0
20260507211815 83 225 1.0 4.0 0.00 0.00 0.00 53 1016.0
20260507211714 83 217 1.0 4.0 0.00 0.00 0.00 55 1016.0
20260507211615 83 192 1.0 4.0 0.00 0.00 0.00 53 1016.0
20260507211515 83 49 1.0 4.0 0.00 0.00 0.00 53 1016.0
20260507211414 83 316 1.0 4.0 0.00 0.00 0.00 54 1016.1
20260507211315 83 288 1.0 5.0 0.00 0.00 0.00 54 1016.1
20260507211215 83 288 1.0 5.0 0.00 0.00 0.00 54 1016.1
20260507211111 83 253 1.0 5.0 0.00 0.00 0.00 55 1016.1
20260507211011 83 253 1.0 5.0 0.00 0.00 0.00 53 1016.1
20260507210917 83 225 1.0 5.0 0.00 0.00 0.00 54 1016.1
20260507210811 83 115 1.0 5.0 0.00 0.00 0.00 54 1016.1
20260507210746 83 96 1.0 5.0 0.00 0.00 0.00 54 1016.1
20260507210711 83 96 1.0 5.0 0.00 0.00 0.00 54 1016.1
20260507210611 83 236 1.0 5.0 0.00 0.00 0.00 53 1016.1
20260507210515 82 150 1.0 5.0 0.00 0.00 0.00 56 1016.2
20260507210411 82 145 1.0 5.0 0.00 0.00 0.00 55 1016.2
20260507210311 82 223 1.0 4.0 0.00 0.00 0.00 54 1016.2
20260507210233 82 124 1.0 4.0 0.00 0.00 0.00 54 1016.2
20260507210211 82 133 1.0 4.0 0.00 0.00 0.00 55 1016.2
20260507210111 82 134 1.0 4.0 0.00 0.00 0.00 54 1016.2
20260507210011 82 228 1.0 4.0 0.00 0.00 0.00 54 1016.2
20260507205911 82 218 0.0 4.0 0.00 0.00 0.00 56 1016.3
20260507205810 82 305 1.0 4.0 0.00 0.00 0.00 56 1016.2
20260507205733 82 305 1.0 4.0 0.00 0.00 0.00 56 1016.2
20260507205712 82 305 1.0 4.0 0.00 0.00 0.00 55 1016.2
20260507205611 82 305 1.0 4.0 0.00 0.00 0.00 56 1016.3
20260507205511 82 240 1.0 3.0 0.00 0.00 0.00 56 1016.3
20260507205411 81 240 1.0 3.0 0.00 0.00 0.00 57 1016.3
20260507205311 81 240 1.0 3.0 0.00 0.00 0.00 57 1016.4
20260507205232 81 240 1.0 3.0 0.00 0.00 0.00 56 1016.4
20260507205207 81 240 1.0 3.0 0.00 0.00 0.00 57 1016.4
20260507205107 81 99 1.0 2.0 0.00 0.00 0.00 56 1016.4
20260507205007 80 271 1.0 3.0 0.00 0.00 0.00 56 1016.3
20260507204907 80 150 1.0 3.0 0.00 0.00 0.00 57 1016.4
20260507204807 80 134 1.0 6.0 0.00 0.00 0.00 57 1016.4
20260507204733 80 127 1.0 6.0 0.00 0.00 0.00 57 1016.4
20260507204708 80 302 1.0 6.0 0.00 0.00 0.00 57 1016.4
20260507204607 80 304 1.0 6.0 0.00 0.00 0.00 58 1016.4
20260507204508 80 304 2.0 6.0 0.00 0.00 0.00 59 1016.4
20260507204407 80 99 2.0 6.0 0.00 0.00 0.00 58 1016.4
20260507204307 80 41 1.0 6.0 0.00 0.00 0.00 57 1016.4
20260507204232 80 43 1.0 6.0 0.00 0.00 0.00 57 1016.4
20260507204207 80 322 1.0 6.0 0.00 0.00 0.00 57 1016.4
20260507204108 80 323 1.0 6.0 0.00 0.00 0.00 57 1016.4
20260507204007 80 342 1.0 6.0 0.00 0.00 0.00 57 1016.4
20260507203908 80 358 1.0 6.0 0.00 0.00 0.00 56 1016.4
20260507203807 80 338 1.0 6.0 0.00 0.00 0.00 56 1016.4
20260507203734 81 355 1.0 6.0 0.00 0.00 0.00 57 1016.4
20260507203708 81 5 1.0 6.0 0.00 0.00 0.00 57 1016.4
20260507203607 80 291 1.0 6.0 0.00 0.00 0.00 58 1016.5
20260507203511 80 153 2.0 6.0 0.00 0.00 0.00 58 1016.4
20260507203407 80 154 2.0 6.0 0.00 0.00 0.00 59 1016.4
20260507203303 80 158 2.0 6.0 0.00 0.00 0.00 59 1016.5
20260507203230 80 159 2.0 6.0 0.00 0.00 0.00 59 1016.5
20260507203214 79 231 2.0 6.0 0.00 0.00 0.00 58 1016.5
20260507203203 80 330 2.0 6.0 0.00 0.00 0.00 59 1016.5
20260507203111 80 330 2.0 6.0 0.00 0.00 0.00 60 1016.5
20260507203103 79 330 2.0 6.0 0.00 0.00 0.00 60 1016.5
20260507202903 79 16 2.0 6.0 0.00 0.00 0.00 58 1016.5
20260507202841 79 126 2.0 6.0 0.00 0.00 0.00 58 1016.5
20260507202703 79 221 2.0 6.0 0.00 0.00 0.00 57 1016.5
20260507202604 80 235 2.0 6.0 0.00 0.00 0.00 58 1016.6
20260507202503 80 231 2.0 6.0 0.00 0.00 0.00 58 1016.6
20260507202402 79 138 2.0 5.0 0.00 0.00 0.00 59 1016.6
20260507202306 80 153 2.0 5.0 0.00 0.00 0.00 59 1016.6
20260507202229 80 303 2.0 5.0 0.00 0.00 0.00 59 1016.7
20260507202203 80 27 2.0 5.0 0.00 0.00 0.00 58 1016.7
20260507202104 80 11 2.0 5.0 0.00 0.00 0.00 58 1016.6
20260507202004 80 332 2.0 5.0 0.00 0.00 0.00 58 1016.6
20260507201903 80 267 2.0 5.0 0.00 0.00 0.00 59 1016.7
20260507201803 80 245 1.0 5.0 0.00 0.00 0.00 57 1016.7
20260507201729 80 231 1.0 5.0 0.00 0.00 0.00 57 1016.7
20260507201703 80 208 1.0 5.0 0.00 0.00 0.00 57 1016.7
20260507201603 80 211 1.0 3.0 0.00 0.00 0.00 57 1016.7
20260507201504 80 216 1.0 3.0 0.00 0.00 0.00 56 1016.7
20260507201359 80 225 1.0 3.0 0.00 0.00 0.00 57 1016.7
20260507201259 80 158 1.0 3.0 0.00 0.00 0.00 58 1016.7
20260507201230 80 120 1.0 3.0 0.00 0.00 0.00 59 1016.7
20260507201222 79 319 2.0 7.0 0.00 0.00 0.00 60 1016.7
20260507201159 80 207 1.0 4.0 0.00 0.00 0.00 60 1016.7
20260507201111 79 229 1.0 5.0 0.00 0.00 0.00 60 1016.7
20260507201102 79 236 2.0 7.0 0.00 0.00 0.00 60 1016.7
20260507200859 79 200 2.0 7.0 0.00 0.00 0.00 60 1016.8
20260507200840 79 319 2.0 7.0 0.00 0.00 0.00 60 1016.7
20260507200659 79 321 2.0 7.0 0.00 0.00 0.00 59 1016.7
20260507200559 79 340 2.0 7.0 0.00 0.00 0.00 59 1016.7
20260507200458 79 316 2.0 7.0 0.00 0.00 0.00 59 1016.8
20260507200359 79 235 3.0 7.0 0.00 0.00 0.00 60 1016.8
20260507200259 79 238 3.0 7.0 0.00 0.00 0.00 59 1016.8
20260507200242 79 316 3.0 7.0 0.00 0.00 0.00 59 1016.8